Wetterdaten: Mittwoch, 11.12.2019
Datum Zeit Temp. Aussen Temp. o. S. Temp +5cm Feuchte Auss Luftdruck Regen Sonnenschein Regendauer Solar Windben Empfang
11.12.2019 00:00 5,3 C 5,0 C 3,9 C 78 % 1014,6 hPa 0,0 l/m 0 min 0 min 0 W/m 16,1 km/h (3 Bft) 100,00 %
11.12.2019 00:02 5,3 C 5,0 C 3,9 C 78 % 1014,6 hPa 0,0 l/m 0 min 0 min 0 W/m 16,1 km/h (3 Bft) 97,44 %
11.12.2019 00:04 5,3 C 5,0 C 3,9 C 79 % 1014,5 hPa 0,0 l/m 0 min 0 min 0 W/m 19,3 km/h (3 Bft) 97,87 %
11.12.2019 00:08 5,3 C 5,0 C 3,9 C 79 % 1014,5 hPa 0,0 l/m 0 min 0 min 0 W/m 25,7 km/h (4 Bft) 78,72 %
11.12.2019 00:10 5,4 C 5,0 C 3,9 C 79 % 1014,3 hPa 0,0 l/m 0 min 0 min 0 W/m 19,3 km/h (3 Bft) 100,00 %
11.12.2019 00:12 5,3 C 5,0 C 3,9 C 79 % 1014,3 hPa 0,0 l/m 0 min 0 min 0 W/m 25,7 km/h (4 Bft) 97,83 %
11.12.2019 00:14 5,3 C 5,0 C 3,9 C 79 % 1014,2 hPa 0,0 l/m 0 min 0 min 0 W/m 22,5 km/h (4 Bft) 100,00 %
11.12.2019 00:16 5,4 C 4,4 C 3,9 C 79 % 1014,2 hPa 0,0 l/m 0 min 0 min 0 W/m 29,0 km/h (5 Bft) 100,00 %
11.12.2019 00:18 5,4 C 5,0 C 3,9 C 79 % 1014,2 hPa 0,0 l/m 0 min 0 min 0 W/m 19,3 km/h (3 Bft) 100,00 %
11.12.2019 00:20 5,4 C 5,0 C 3,9 C 79 % 1014,2 hPa 0,0 l/m 0 min 0 min 0 W/m 29,0 km/h (5 Bft) 100,00 %
11.12.2019 00:22 5,4 C 5,0 C 4,4 C 79 % 1014,1 hPa 0,0 l/m 0 min 0 min 0 W/m 25,7 km/h (4 Bft) 100,00 %
11.12.2019 00:24 5,4 C 5,0 C 4,4 C 79 % 1014,2 hPa 0,0 l/m 0 min 0 min 0 W/m 22,5 km/h (4 Bft) 97,83 %
11.12.2019 00:26 5,4 C 5,0 C 4,4 C 79 % 1014,1 hPa 0,0 l/m 0 min 0 min 0 W/m 35,4 km/h (5 Bft) 100,00 %
11.12.2019 00:28 5,4 C 5,0 C 4,4 C 79 % 1014,1 hPa 0,0 l/m 0 min 0 min 0 W/m 25,7 km/h (4 Bft) 100,00 %
11.12.2019 00:30 5,4 C 5,0 C 4,4 C 79 % 1014,1 hPa 0,0 l/m 0 min 0 min 0 W/m 25,7 km/h (4 Bft) 100,00 %
11.12.2019 00:32 5,4 C 5,0 C 4,4 C 79 % 1014,1 hPa 0,0 l/m 0 min 0 min 0 W/m 22,5 km/h (4 Bft) 100,00 %
11.12.2019 00:34 5,5 C 5,0 C 4,4 C 79 % 1014,0 hPa 0,0 l/m 0 min 0 min 0 W/m 29,0 km/h (5 Bft) 100,00 %
11.12.2019 00:36 5,5 C 5,0 C 4,4 C 79 % 1014,0 hPa 0,0 l/m 0 min 0 min 0 W/m 19,3 km/h (3 Bft) 97,83 %
11.12.2019 00:38 5,5 C 5,0 C 4,4 C 79 % 1014,0 hPa 0,0 l/m 0 min 0 min 0 W/m 32,2 km/h (5 Bft) 97,87 %
11.12.2019 00:40 5,5 C 5,0 C 4,4 C 79 % 1013,9 hPa 0,0 l/m 0 min 0 min 0 W/m 22,5 km/h (4 Bft) 100,00 %
11.12.2019 00:42 5,6 C 5,0 C 4,4 C 79 % 1013,9 hPa 0,0 l/m 0 min 0 min 0 W/m 38,6 km/h (5 Bft) 100,00 %
11.12.2019 00:44 5,6 C 5,0 C 4,4 C 79 % 1013,8 hPa 0,0 l/m 0 min 0 min 0 W/m 19,3 km/h (3 Bft) 91,49 %
11.12.2019 00:46 5,6 C 5,0 C 4,4 C 79 % 1013,8 hPa 0,0 l/m 0 min 0 min 0 W/m 22,5 km/h (4 Bft) 95,74 %
11.12.2019 00:48 5,6 C 5,0 C 4,4 C 79 % 1013,8 hPa 0,0 l/m 0 min 0 min 0 W/m 38,6 km/h (5 Bft) 95,65 %
11.12.2019 00:50 5,6 C 5,0 C 4,4 C 79 % 1013,9 hPa 0,0 l/m 0 min 0 min 0 W/m 16,1 km/h (3 Bft) 91,49 %
11.12.2019 00:52 5,6 C 5,0 C 4,4 C 79 % 1014,0 hPa 0,0 l/m 0 min 0 min 0 W/m 16,1 km/h (3 Bft) 93,62 %
11.12.2019 00:54 5,6 C 5,0 C 4,4 C 79 % 1014,0 hPa 0,0 l/m 0 min 0 min 0 W/m 16,1 km/h (3 Bft) 95,74 %
11.12.2019 00:56 5,6 C 5,0 C 4,4 C 79 % 1014,0 hPa 0,0 l/m 0 min 0 min 0 W/m 25,7 km/h (4 Bft) 93,62 %
11.12.2019 00:58 5,6 C 5,0 C 4,4 C 79 % 1014,0 hPa 0,0 l/m 0 min 0 min 0 W/m 22,5 km/h (4 Bft) 95,74 %
11.12.2019 01:00 5,6 C 5,0 C 4,4 C 79 % 1014,1 hPa 0,0 l/m 0 min 0 min 0 W/m 25,7 km/h (4 Bft) 93,48 %
11.12.2019 01:02 5,6 C 5,0 C 4,4 C 79 % 1014,0 hPa 0,0 l/m 0 min 0 min 0 W/m 12,9 km/h (3 Bft) 93,62 %
11.12.2019 01:04 5,6 C 5,0 C 4,4 C 79 % 1014,0 hPa 0,0 l/m 0 min 0 min 0 W/m 22,5 km/h (4 Bft) 93,62 %
11.12.2019 01:06 5,6 C 5,0 C 4,4 C 79 % 1014,0 hPa 0,0 l/m 0 min 0 min 0 W/m 29,0 km/h (5 Bft) 95,74 %
11.12.2019 01:08 5,6 C 5,0 C 4,4 C 79 % 1013,8 hPa 0,0 l/m 0 min 0 min 0 W/m 12,9 km/h (3 Bft) 95,74 %
11.12.2019 01:10 5,6 C 5,0 C 4,4 C 79 % 1013,9 hPa 0,0 l/m 0 min 0 min 0 W/m 22,5 km/h (4 Bft) 89,13 %
11.12.2019 01:12 5,6 C 5,0 C 4,4 C 79 % 1013,8 hPa 0,0 l/m 0 min 0 min 0 W/m 19,3 km/h (3 Bft) 93,62 %
11.12.2019 01:14 5,6 C 5,0 C 4,4 C 79 % 1013,8 hPa 0,0 l/m 0 min 0 min 0 W/m 25,7 km/h (4 Bft) 93,62 %
11.12.2019 01:16 5,6 C 5,0 C 4,4 C 79 % 1013,6 hPa 0,0 l/m 0 min 0 min 0 W/m 25,7 km/h (4 Bft) 95,74 %
11.12.2019 01:18 5,6 C 5,0 C 4,4 C 79 % 1013,6 hPa 0,0 l/m 0 min 0 min 0 W/m 25,7 km/h (4 Bft) 91,49 %
11.12.2019 01:20 5,6 C 5,0 C 4,4 C 79 % 1013,5 hPa 0,0 l/m 0 min 0 min 0 W/m 29,0 km/h (5 Bft) 93,62 %
11.12.2019 01:22 5,6 C 5,0 C 4,4 C 79 % 1013,5 hPa 0,0 l/m 0 min 0 min 0 W/m 19,3 km/h (3 Bft) 93,48 %
11.12.2019 01:24 5,6 C 5,0 C 4,4 C 79 % 1013,6 hPa 0,0 l/m 0 min 0 min 0 W/m 35,4 km/h (5 Bft) 91,49 %
11.12.2019 01:26 5,6 C 5,0 C 4,4 C 79 % 1013,5 hPa 0,0 l/m 0 min 0 min 0 W/m 12,9 km/h (3 Bft) 93,62 %
11.12.2019 01:28 5,6 C 5,0 C 4,4 C 79 % 1013,5 hPa 0,0 l/m 0 min 0 min 0 W/m 22,5 km/h (4 Bft) 91,49 %
11.12.2019 01:30 5,6 C 5,0 C 4,4 C 79 % 1013,5 hPa 0,0 l/m 0 min 0 min 0 W/m 12,9 km/h (3 Bft) 97,87 %
11.12.2019 01:32 5,6 C 5,0 C 4,4 C 79 % 1013,4 hPa 0,0 l/m 0 min 0 min 0 W/m 19,3 km/h (3 Bft) 97,87 %
11.12.2019 01:34 5,5 C 5,0 C 4,4 C 79 % 1013,4 hPa 0,0 l/m 0 min 0 min 0 W/m 25,7 km/h (4 Bft) 95,65 %
11.12.2019 01:36 5,5 C 5,0 C 4,4 C 79 % 1013,4 hPa 0,0 l/m 0 min 0 min 0 W/m 16,1 km/h (3 Bft) 91,49 %
11.12.2019 01:38 5,5 C 5,0 C 4,4 C 79 % 1013,3 hPa 0,0 l/m 0 min 0 min 0 W/m 22,5 km/h (4 Bft) 95,74 %
11.12.2019 01:40 5,5 C 5,0 C 4,4 C 79 % 1013,3 hPa 0,0 l/m 0 min 0 min 0 W/m 22,5 km/h (4 Bft) 93,62 %
11.12.2019 01:42 5,5 C 5,0 C 4,4 C 79 % 1013,2 hPa 0,0 l/m 0 min 0 min 0 W/m 32,2 km/h (5 Bft) 93,62 %
11.12.2019 01:44 5,5 C 5,0 C 4,4 C 80 % 1013,2 hPa 0,0 l/m 0 min 0 min 0 W/m 25,7 km/h (4 Bft) 95,65 %
11.12.2019 01:46 5,4 C 5,0 C 4,4 C 80 % 1013,3 hPa 0,0 l/m 0 min 0 min 0 W/m 22,5 km/h (4 Bft) 95,74 %
11.12.2019 01:48 5,4 C 5,0 C 3,9 C 80 % 1013,2 hPa 0,0 l/m 0 min 0 min 0 W/m 22,5 km/h (4 Bft) 95,74 %
11.12.2019 01:50 5,4 C 5,0 C 3,9 C 80 % 1013,2 hPa 0,0 l/m 0 min 0 min 0 W/m 29,0 km/h (5 Bft) 95,74 %
11.12.2019 01:52 5,4 C 4,4 C 3,9 C 80 % 1013,2 hPa 0,0 l/m 0 min 0 min 0 W/m 22,5 km/h (4 Bft) 95,74 %
11.12.2019 01:54 5,4 C 4,4 C 3,9 C 80 % 1013,1 hPa 0,0 l/m 0 min 0 min 0 W/m 16,1 km/h (3 Bft) 97,87 %
11.12.2019 01:56 5,4 C 4,4 C 3,9 C 80 % 1013,2 hPa 0,0 l/m 0 min 0 min 0 W/m 22,5 km/h (4 Bft) 97,83 %
11.12.2019 01:58 5,4 C 4,4 C 3,9 C 80 % 1013,1 hPa 0,0 l/m 0 min 0 min 0 W/m 25,7 km/h (4 Bft) 100,00 %
11.12.2019 02:00 5,4 C 4,4 C 3,9 C 80 % 1013,1 hPa 0,0 l/m 0 min 0 min 0 W/m 35,4 km/h (5 Bft) 97,87 %
11.12.2019 02:02 5,4 C 4,4 C 3,9 C 80 % 1013,0 hPa 0,0 l/m 0 min 0 min 0 W/m 22,5 km/h (4 Bft) 100,00 %
11.12.2019 02:04 5,4 C 4,4 C 3,9 C 80 % 1013,0 hPa 0,0 l/m 0 min 0 min 0 W/m 22,5 km/h (4 Bft) 100,00 %
11.12.2019 02:06 5,3 C 4,4 C 3,9 C 80 % 1013,0 hPa 0,0 l/m 0 min 0 min 0 W/m 25,7 km/h (4 Bft) 100,00 %
11.12.2019 02:08 5,3 C 4,4 C 3,9 C 81 % 1012,9 hPa 0,0 l/m 0 min 0 min 0 W/m 22,5 km/h (4 Bft) 100,00 %
11.12.2019 02:10 5,3 C 4,4 C 3,9 C 81 % 1012,9 hPa 0,0 l/m 0 min 0 min 0 W/m 22,5 km/h (4 Bft) 97,87 %
11.12.2019 02:12 5,3 C 4,4 C 3,9 C 81 % 1012,9 hPa 0,0 l/m 0 min 0 min 0 W/m 22,5 km/h (4 Bft) 100,00 %
11.12.2019 02:14 5,3 C 4,4 C 3,9 C 81 % 1012,8 hPa 0,0 l/m 0 min 0 min 0 W/m 19,3 km/h (3 Bft) 100,00 %
11.12.2019 02:16 5,3 C 4,4 C 3,9 C 81 % 1012,8 hPa 0,0 l/m 0 min 0 min 0 W/m 32,2 km/h (5 Bft) 100,00 %
11.12.2019 02:18 5,3 C 4,4 C 3,9 C 81 % 1012,8 hPa 0,0 l/m 0 min 0 min 0 W/m 6,4 km/h (2 Bft) 97,87 %
11.12.2019 02:20 5,3 C 4,4 C 3,9 C 81 % 1012,8 hPa 0,0 l/m 0 min 0 min 0 W/m 25,7 km/h (4 Bft) 100,00 %
11.12.2019 02:22 5,3 C 4,4 C 3,9 C 81 % 1012,7 hPa 0,0 l/m 0 min 0 min 0 W/m 25,7 km/h (4 Bft) 100,00 %
11.12.2019 02:24 5,3 C 4,4 C 3,9 C 81 % 1012,7 hPa 0,0 l/m 0 min 0 min 0 W/m 25,7 km/h (4 Bft) 100,00 %
11.12.2019 02:26 5,3 C 4,4 C 3,9 C 81 % 1012,7 hPa 0,0 l/m 0 min 0 min 0 W/m 16,1 km/h (3 Bft) 100,00 %
11.12.2019 02:28 5,3 C 4,4 C 3,9 C 81 % 1012,7 hPa 0,0 l/m 0 min 0 min 0 W/m 29,0 km/h (5 Bft) 100,00 %
11.12.2019 02:30 5,3 C 4,4 C 3,9 C 82 % 1012,7 hPa 0,0 l/m 0 min 0 min 0 W/m 12,9 km/h (3 Bft) 100,00 %
11.12.2019 02:32 5,3 C 4,4 C 3,9 C 82 % 1012,8 hPa 0,0 l/m 0 min 0 min 0 W/m 29,0 km/h (5 Bft) 100,00 %
11.12.2019 02:34 5,3 C 4,4 C 3,9 C 82 % 1012,7 hPa 0,0 l/m 0 min 0 min 0 W/m 19,3 km/h (3 Bft) 100,00 %
11.12.2019 02:36 5,3 C 4,4 C 3,9 C 82 % 1012,7 hPa 0,0 l/m 0 min 0 min 0 W/m 19,3 km/h (3 Bft) 100,00 %
11.12.2019 02:38 5,3 C 4,4 C 3,9 C 83 % 1012,8 hPa 0,0 l/m 0 min 0 min 0 W/m 35,4 km/h (5 Bft) 100,00 %
11.12.2019 02:40 5,2 C 4,4 C 3,9 C 83 % 1012,7 hPa 0,0 l/m 0 min 0 min 0 W/m 22,5 km/h (4 Bft) 100,00 %
11.12.2019 02:42 5,2 C 4,4 C 3,9 C 83 % 1012,7 hPa 0,0 l/m 0 min 0 min 0 W/m 16,1 km/h (3 Bft) 100,00 %
11.12.2019 02:44 5,2 C 4,4 C 3,9 C 83 % 1012,7 hPa 0,0 l/m 0 min 0 min 0 W/m 16,1 km/h (3 Bft) 100,00 %
11.12.2019 02:46 5,2 C 4,4 C 3,9 C 83 % 1012,8 hPa 0,0 l/m 0 min 0 min 0 W/m 25,7 km/h (4 Bft) 100,00 %
11.12.2019 02:48 5,2 C 4,4 C 3,9 C 83 % 1012,7 hPa 0,0 l/m 0 min 0 min 0 W/m 16,1 km/h (3 Bft) 97,87 %
11.12.2019 02:50 5,2 C 4,4 C 3,9 C 83 % 1012,8 hPa 0,0 l/m 0 min 0 min 0 W/m 25,7 km/h (4 Bft) 100,00 %
11.12.2019 02:52 5,2 C 4,4 C 3,9 C 84 % 1012,8 hPa 0,0 l/m 0 min 0 min 0 W/m 12,9 km/h (3 Bft) 97,87 %
11.12.2019 02:54 5,2 C 3,9 C 3,3 C 84 % 1012,8 hPa 0,0 l/m 0 min 0 min 0 W/m 16,1 km/h (3 Bft) 100,00 %
11.12.2019 02:56 5,2 C 3,9 C 3,3 C 84 % 1012,9 hPa 0,0 l/m 0 min 0 min 0 W/m 19,3 km/h (3 Bft) 97,87 %
11.12.2019 02:58 5,2 C 3,3 C 3,3 C 85 % 1012,8 hPa 0,0 l/m 0 min 0 min 0 W/m 19,3 km/h (3 Bft) 100,00 %
11.12.2019 03:00 5,2 C 3,3 C 2,8 C 85 % 1012,8 hPa 0,0 l/m 0 min 0 min 0 W/m 19,3 km/h (3 Bft) 97,87 %
11.12.2019 03:02 5,1 C 3,3 C 2,8 C 85 % 1012,8 hPa 0,0 l/m 0 min 0 min 0 W/m 19,3 km/h (3 Bft) 97,87 %
11.12.2019 03:04 5,1 C 3,3 C 2,8 C 86 % 1012,9 hPa 0,0 l/m 0 min 0 min 0 W/m 19,3 km/h (3 Bft) 100,00 %
11.12.2019 03:06 5,1 C 3,3 C 2,8 C 86 % 1012,8 hPa 0,0 l/m 0 min 0 min 0 W/m 22,5 km/h (4 Bft) 100,00 %
11.12.2019 03:08 5,1 C 2,8 C 2,8 C 86 % 1012,9 hPa 0,0 l/m 0 min 0 min 0 W/m 16,1 km/h (3 Bft) 100,00 %
11.12.2019 03:10 5,0 C 2,8 C 2,8 C 87 % 1012,9 hPa 0,0 l/m 0 min 0 min 0 W/m 16,1 km/h (3 Bft) 100,00 %
11.12.2019 03:12 4,9 C 2,8 C 2,8 C 87 % 1012,8 hPa 0,0 l/m 0 min 0 min 0 W/m 12,9 km/h (3 Bft) 97,87 %
11.12.2019 03:14 4,9 C 2,8 C 2,8 C 88 % 1012,8 hPa 0,0 l/m 0 min 0 min 0 W/m 16,1 km/h (3 Bft) 100,00 %
11.12.2019 03:16 4,8 C 2,8 C 2,8 C 88 % 1012,8 hPa 0,0 l/m 0 min 2 min 0 W/m 16,1 km/h (3 Bft) 100,00 %
11.12.2019 03:18 4,8 C 2,8 C 2,8 C 88 % 1012,8 hPa 0,0 l/m 0 min 2 min 0 W/m 19,3 km/h (3 Bft) 100,00 %
11.12.2019 03:20 4,7 C 2,8 C 2,2 C 89 % 1012,7 hPa 0,2 l/m 0 min 2 min 0 W/m 25,7 km/h (4 Bft) 97,87 %
11.12.2019 03:22 4,7 C 2,8 C 2,2 C 89 % 1012,7 hPa 0,0 l/m 0 min 2 min 0 W/m 22,5 km/h (4 Bft) 100,00 %
11.12.2019 03:24 4,6 C 2,8 C 2,2 C 89 % 1012,6 hPa 0,0 l/m 0 min 2 min 0 W/m 19,3 km/h (3 Bft) 100,00 %
11.12.2019 03:26 4,6 C 2,8 C 2,2 C 90 % 1012,6 hPa 0,0 l/m 0 min 2 min 0 W/m 16,1 km/h (3 Bft) 100,00 %
11.12.2019 03:28 4,6 C 2,8 C 2,2 C 90 % 1012,7 hPa 0,0 l/m 0 min 2 min 0 W/m 25,7 km/h (4 Bft) 97,87 %
11.12.2019 03:30 4,4 C 2,8 C 2,2 C 90 % 1012,6 hPa 0,0 l/m 0 min 2 min 0 W/m 25,7 km/h (4 Bft) 97,83 %
11.12.2019 03:32 4,4 C 2,8 C 2,2 C 91 % 1012,6 hPa 0,0 l/m 0 min 2 min 0 W/m 19,3 km/h (3 Bft) 97,87 %
11.12.2019 03:34 4,3 C 2,8 C 2,2 C 91 % 1012,5 hPa 0,0 l/m 0 min 2 min 0 W/m 22,5 km/h (4 Bft) 97,87 %
11.12.2019 03:36 4,3 C 2,8 C 2,2 C 91 % 1012,5 hPa 0,0 l/m 0 min 2 min 0 W/m 22,5 km/h (4 Bft) 95,74 %
11.12.2019 03:38 4,2 C 2,8 C 2,2 C 92 % 1012,5 hPa 0,0 l/m 0 min 2 min 0 W/m 22,5 km/h (4 Bft) 97,87 %
11.12.2019 03:40 4,2 C 2,8 C 2,2 C 92 % 1012,4 hPa 0,0 l/m 0 min 2 min 0 W/m 22,5 km/h (4 Bft) 97,83 %
11.12.2019 03:42 4,1 C 2,8 C 2,2 C 92 % 1012,4 hPa 0,2 l/m 0 min 2 min 0 W/m 25,7 km/h (4 Bft) 95,74 %
11.12.2019 03:44 4,1 C 2,8 C 2,2 C 92 % 1012,4 hPa 0,0 l/m 0 min 0 min 0 W/m 22,5 km/h (4 Bft) 95,74 %
11.12.2019 03:46 4,1 C 2,8 C 2,2 C 93 % 1012,3 hPa 0,0 l/m 0 min 0 min 0 W/m 22,5 km/h (4 Bft) 93,62 %
11.12.2019 03:48 4,0 C 2,8 C 2,2 C 93 % 1012,2 hPa 0,0 l/m 0 min 0 min 0 W/m 29,0 km/h (5 Bft) 95,74 %
11.12.2019 03:50 4,0 C 2,8 C 2,2 C 93 % 1012,3 hPa 0,0 l/m 0 min 0 min 0 W/m 29,0 km/h (5 Bft) 97,87 %
11.12.2019 03:52 3,9 C 2,8 C 2,2 C 93 % 1012,3 hPa 0,0 l/m 0 min 2 min 0 W/m 35,4 km/h (5 Bft) 95,65 %
11.12.2019 03:54 3,9 C 2,8 C 2,2 C 93 % 1012,2 hPa 0,0 l/m 0 min 0 min 0 W/m 29,0 km/h (5 Bft) 95,74 %
11.12.2019 03:56 3,9 C 2,8 C 2,2 C 94 % 1012,2 hPa 0,0 l/m 0 min 2 min 0 W/m 19,3 km/h (3 Bft) 93,62 %
11.12.2019 03:58 3,9 C 2,8 C 2,2 C 94 % 1012,2 hPa 0,2 l/m 0 min 0 min 0 W/m 29,0 km/h (5 Bft) 95,74 %
11.12.2019 04:00 3,8 C 2,8 C 2,2 C 94 % 1012,2 hPa 0,0 l/m 0 min 0 min 0 W/m 19,3 km/h (3 Bft) 93,62 %
11.12.2019 04:02 3,8 C 2,8 C 2,2 C 94 % 1012,1 hPa 0,0 l/m 0 min 2 min 0 W/m 19,3 km/h (3 Bft) 96,15 %
11.12.2019 04:04 3,8 C 2,8 C 2,2 C 94 % 1012,2 hPa 0,0 l/m 0 min 0 min 0 W/m 25,7 km/h (4 Bft) 93,48 %
11.12.2019 04:06 3,8 C 2,8 C 2,2 C 94 % 1012,1 hPa 0,0 l/m 0 min 0 min 0 W/m 22,5 km/h (4 Bft) 95,74 %
11.12.2019 04:08 3,8 C 2,8 C 2,2 C 94 % 1012,1 hPa 0,0 l/m 0 min 0 min 0 W/m 22,5 km/h (4 Bft) 95,74 %
11.12.2019 04:10 3,8 C 2,8 C 2,2 C 95 % 1012,1 hPa 0,0 l/m 0 min 2 min 0 W/m 35,4 km/h (5 Bft) 95,74 %
11.12.2019 04:12 3,8 C 2,8 C 2,2 C 95 % 1012,1 hPa 0,0 l/m 0 min 0 min 0 W/m 25,7 km/h (4 Bft) 95,74 %
11.12.2019 04:14 3,8 C 2,8 C 2,2 C 95 % 1012,2 hPa 0,0 l/m 0 min 0 min 0 W/m 25,7 km/h (4 Bft) 95,74 %
11.12.2019 04:16 3,8 C 2,8 C 2,2 C 95 % 1012,1 hPa 0,0 l/m 0 min 2 min 0 W/m 22,5 km/h (4 Bft) 95,65 %
11.12.2019 04:18 3,8 C 2,8 C 2,2 C 95 % 1012,1 hPa 0,0 l/m 0 min 0 min 0 W/m 19,3 km/h (3 Bft) 95,74 %
11.12.2019 04:20 3,8 C 2,8 C 2,2 C 95 % 1012,0 hPa 0,0 l/m 0 min 2 min 0 W/m 16,1 km/h (3 Bft) 95,74 %
11.12.2019 04:22 3,7 C 2,8 C 2,2 C 95 % 1012,0 hPa 0,0 l/m 0 min 0 min 0 W/m 19,3 km/h (3 Bft) 97,87 %
11.12.2019 04:24 3,7 C 2,8 C 2,2 C 95 % 1012,0 hPa 0,2 l/m 0 min 2 min 0 W/m 22,5 km/h (4 Bft) 97,87 %
11.12.2019 04:26 3,8 C 2,8 C 2,2 C 95 % 1012,0 hPa 0,0 l/m 0 min 2 min 0 W/m 22,5 km/h (4 Bft) 95,74 %
11.12.2019 04:28 3,8 C 2,8 C 2,2 C 96 % 1012,0 hPa 0,0 l/m 0 min 2 min 0 W/m 22,5 km/h (4 Bft) 95,65 %
11.12.2019 04:30 3,8 C 2,8 C 2,2 C 96 % 1012,0 hPa 0,2 l/m 0 min 2 min 0 W/m 22,5 km/h (4 Bft) 95,74 %
11.12.2019 04:32 3,8 C 2,8 C 2,2 C 96 % 1011,9 hPa 0,0 l/m 0 min 2 min 0 W/m 22,5 km/h (4 Bft) 95,74 %
11.12.2019 04:34 3,8 C 2,8 C 2,2 C 96 % 1011,9 hPa 0,0 l/m 0 min 2 min 0 W/m 19,3 km/h (3 Bft) 97,87 %
11.12.2019 04:36 3,8 C 2,8 C 2,2 C 96 % 1011,9 hPa 0,2 l/m 0 min 2 min 0 W/m 19,3 km/h (3 Bft) 95,74 %
11.12.2019 04:38 3,8 C 2,8 C 2,2 C 96 % 1011,8 hPa 0,0 l/m 0 min 2 min 0 W/m 25,7 km/h (4 Bft) 97,83 %
11.12.2019 04:40 3,8 C 2,8 C 2,2 C 96 % 1011,8 hPa 0,2 l/m 0 min 2 min 0 W/m 19,3 km/h (3 Bft) 95,74 %
11.12.2019 04:42 3,8 C 2,8 C 2,2 C 96 % 1011,8 hPa 0,0 l/m 0 min 2 min 0 W/m 16,1 km/h (3 Bft) 100,00 %
11.12.2019 04:44 3,8 C 2,8 C 2,2 C 96 % 1011,7 hPa 0,0 l/m 0 min 2 min 0 W/m 22,5 km/h (4 Bft) 97,87 %
11.12.2019 04:46 3,8 C 2,8 C 2,2 C 96 % 1011,7 hPa 0,0 l/m 0 min 0 min 0 W/m 22,5 km/h (4 Bft) 97,87 %
11.12.2019 04:48 3,8 C 2,8 C 2,2 C 96 % 1011,6 hPa 0,0 l/m 0 min 0 min 0 W/m 19,3 km/h (3 Bft) 95,74 %
11.12.2019 04:50 3,8 C 2,8 C 2,2 C 96 % 1011,6 hPa 0,0 l/m 0 min 0 min 0 W/m 22,5 km/h (4 Bft) 97,83 %
11.12.2019 04:52 3,8 C 2,8 C 2,2 C 96 % 1011,6 hPa 0,0 l/m 0 min 0 min 0 W/m 25,7 km/h (4 Bft) 97,87 %
11.12.2019 04:54 3,8 C 2,8 C 2,2 C 96 % 1011,5 hPa 0,0 l/m 0 min 0 min 0 W/m 22,5 km/h (4 Bft) 97,87 %
11.12.2019 04:56 3,8 C 2,8 C 2,2 C 96 % 1011,6 hPa 0,0 l/m 0 min 0 min 0 W/m 22,5 km/h (4 Bft) 97,87 %
11.12.2019 04:58 3,8 C 2,8 C 2,2 C 96 % 1011,6 hPa 0,0 l/m 0 min 0 min 0 W/m 22,5 km/h (4 Bft) 97,87 %
11.12.2019 05:00 3,8 C 2,8 C 2,2 C 97 % 1011,6 hPa 0,0 l/m 0 min 0 min 0 W/m 22,5 km/h (4 Bft) 97,87 %
11.12.2019 05:02 3,8 C 2,8 C 2,2 C 97 % 1011,5 hPa 0,0 l/m 0 min 0 min 0 W/m 22,5 km/h (4 Bft) 97,83 %
11.12.2019 05:04 3,8 C 2,8 C 2,2 C 97 % 1011,5 hPa 0,0 l/m 0 min 0 min 0 W/m 29,0 km/h (5 Bft) 97,87 %
11.12.2019 05:06 3,8 C 2,8 C 2,2 C 97 % 1011,5 hPa 0,0 l/m 0 min 2 min 0 W/m 25,7 km/h (4 Bft) 97,87 %
11.12.2019 05:08 3,8 C 2,8 C 2,2 C 97 % 1011,5 hPa 0,0 l/m 0 min 0 min 0 W/m 19,3 km/h (3 Bft) 93,62 %
11.12.2019 05:10 3,8 C 2,8 C 2,2 C 97 % 1011,5 hPa 0,0 l/m 0 min 0 min 0 W/m 16,1 km/h (3 Bft) 97,87 %
11.12.2019 05:12 3,8 C 2,8 C 2,2 C 97 % 1011,5 hPa 0,0 l/m 0 min 0 min 0 W/m 12,9 km/h (3 Bft) 95,74 %
11.12.2019 05:14 3,8 C 2,8 C 2,2 C 97 % 1011,5 hPa 0,0 l/m 0 min 0 min 0 W/m 19,3 km/h (3 Bft) 97,83 %
11.12.2019 05:16 3,8 C 2,8 C 2,2 C 97 % 1011,5 hPa 0,0 l/m 0 min 2 min 0 W/m 19,3 km/h (3 Bft) 97,87 %
11.12.2019 05:18 3,8 C 2,8 C 2,2 C 97 % 1011,5 hPa 0,0 l/m 0 min 2 min 0 W/m 9,7 km/h (2 Bft) 97,87 %
11.12.2019 05:20 3,8 C 2,8 C 2,2 C 97 % 1011,4 hPa 0,2 l/m 0 min 2 min 0 W/m 16,1 km/h (3 Bft) 97,87 %
11.12.2019 05:22 3,8 C 2,8 C 2,2 C 97 % 1011,4 hPa 0,0 l/m 0 min 2 min 0 W/m 19,3 km/h (3 Bft) 97,87 %
11.12.2019 05:24 3,8 C 2,8 C 2,8 C 97 % 1011,3 hPa 0,0 l/m 0 min 0 min 0 W/m 19,3 km/h (3 Bft) 97,87 %
11.12.2019 05:26 3,8 C 2,8 C 2,8 C 97 % 1011,3 hPa 0,0 l/m 0 min 0 min 0 W/m 19,3 km/h (3 Bft) 97,83 %
11.12.2019 05:28 3,8 C 2,8 C 2,8 C 97 % 1011,4 hPa 0,0 l/m 0 min 0 min 0 W/m 22,5 km/h (4 Bft) 97,87 %
11.12.2019 05:30 3,8 C 2,8 C 2,8 C 97 % 1011,3 hPa 0,0 l/m 0 min 0 min 0 W/m 19,3 km/h (3 Bft) 97,87 %
11.12.2019 05:32 3,8 C 2,8 C 2,8 C 97 % 1011,3 hPa 0,0 l/m 0 min 0 min 0 W/m 19,3 km/h (3 Bft) 97,87 %
11.12.2019 05:34 3,8 C 2,8 C 2,8 C 97 % 1011,3 hPa 0,0 l/m 0 min 0 min 0 W/m 19,3 km/h (3 Bft) 97,87 %
11.12.2019 05:36 3,8 C 2,8 C 2,8 C 97 % 1011,3 hPa 0,0 l/m 0 min 0 min 0 W/m 19,3 km/h (3 Bft) 100,00 %
11.12.2019 05:38 3,9 C 2,8 C 2,8 C 97 % 1011,3 hPa 0,0 l/m 0 min 0 min 0 W/m 19,3 km/h (3 Bft) 100,00 %
11.12.2019 05:40 3,8 C 2,8 C 2,8 C 97 % 1011,3 hPa 0,0 l/m 0 min 0 min 0 W/m 22,5 km/h (4 Bft) 100,00 %
11.12.2019 05:42 3,8 C 3,3 C 2,8 C 97 % 1011,3 hPa 0,0 l/m 0 min 0 min 0 W/m 19,3 km/h (3 Bft) 100,00 %
11.12.2019 05:44 3,9 C 3,3 C 2,8 C 97 % 1011,2 hPa 0,0 l/m 0 min 0 min 0 W/m 16,1 km/h (3 Bft) 97,87 %
11.12.2019 05:46 3,9 C 3,3 C 2,8 C 98 % 1011,2 hPa 0,0 l/m 0 min 2 min 0 W/m 19,3 km/h (3 Bft) 97,87 %
11.12.2019 05:48 3,9 C 3,3 C 2,8 C 98 % 1011,2 hPa 0,0 l/m 0 min 2 min 0 W/m 19,3 km/h (3 Bft) 100,00 %
11.12.2019 05:50 3,9 C 3,3 C 2,8 C 98 % 1011,2 hPa 0,0 l/m 0 min 0 min 0 W/m 22,5 km/h (4 Bft) 100,00 %
11.12.2019 05:52 3,9 C 3,3 C 2,8 C 98 % 1011,2 hPa 0,0 l/m 0 min 2 min 0 W/m 29,0 km/h (5 Bft) 100,00 %
11.12.2019 05:54 3,9 C 3,3 C 2,8 C 98 % 1011,1 hPa 0,0 l/m 0 min 0 min 0 W/m 22,5 km/h (4 Bft) 97,87 %
11.12.2019 05:56 3,9 C 3,3 C 2,8 C 98 % 1011,2 hPa 0,0 l/m 0 min 0 min 0 W/m 25,7 km/h (4 Bft) 100,00 %
11.12.2019 05:58 3,9 C 3,3 C 2,8 C 98 % 1011,2 hPa 0,0 l/m 0 min 2 min 0 W/m 25,7 km/h (4 Bft) 100,00 %
11.12.2019 06:00 3,9 C 3,3 C 2,8 C 98 % 1011,1 hPa 0,0 l/m 0 min 2 min 0 W/m 19,3 km/h (3 Bft) 100,00 %
11.12.2019 06:02 3,9 C 3,3 C 2,8 C 98 % 1011,1 hPa 0,0 l/m 0 min 2 min 0 W/m 19,3 km/h (3 Bft) 97,87 %
11.12.2019 06:04 3,9 C 3,3 C 2,8 C 98 % 1011,1 hPa 0,0 l/m 0 min 2 min 0 W/m 19,3 km/h (3 Bft) 100,00 %
11.12.2019 06:06 3,9 C 3,3 C 2,8 C 98 % 1011,1 hPa 0,0 l/m 0 min 2 min 0 W/m 19,3 km/h (3 Bft) 100,00 %
11.12.2019 06:08 3,9 C 3,3 C 2,8 C 98 % 1011,1 hPa 0,0 l/m 0 min 2 min 0 W/m 16,1 km/h (3 Bft) 100,00 %
11.12.2019 06:10 3,9 C 3,3 C 2,8 C 98 % 1011,1 hPa 0,0 l/m 0 min 2 min 0 W/m 19,3 km/h (3 Bft) 100,00 %
11.12.2019 06:12 3,9 C 3,3 C 2,8 C 98 % 1011,1 hPa 0,0 l/m 0 min 2 min 0 W/m 19,3 km/h (3 Bft) 95,74 %
11.12.2019 06:14 3,9 C 3,3 C 2,8 C 98 % 1011,1 hPa 0,0 l/m 0 min 2 min 0 W/m 22,5 km/h (4 Bft) 100,00 %
11.12.2019 06:16 3,9 C 3,3 C 2,8 C 98 % 1011,0 hPa 0,0 l/m 0 min 2 min 0 W/m 19,3 km/h (3 Bft) 100,00 %
11.12.2019 06:18 3,9 C 3,3 C 2,8 C 98 % 1011,1 hPa 0,0 l/m 0 min 0 min 0 W/m 25,7 km/h (4 Bft) 97,87 %
11.12.2019 06:20 3,9 C 3,3 C 2,8 C 98 % 1011,0 hPa 0,0 l/m 0 min 0 min 0 W/m 16,1 km/h (3 Bft) 97,87 %
11.12.2019 06:22 3,9 C 3,3 C 2,8 C 98 % 1011,0 hPa 0,0 l/m 0 min 0 min 0 W/m 19,3 km/h (3 Bft) 93,48 %
11.12.2019 06:24 3,9 C 3,3 C 2,8 C 98 % 1011,0 hPa 0,0 l/m 0 min 0 min 0 W/m 22,5 km/h (4 Bft) 97,87 %
11.12.2019 06:26 3,9 C 3,3 C 2,8 C 98 % 1011,0 hPa 0,0 l/m 0 min 0 min 0 W/m 12,9 km/h (3 Bft) 97,87 %
11.12.2019 06:28 3,9 C 3,3 C 2,8 C 98 % 1011,0 hPa 0,0 l/m 0 min 2 min 0 W/m 16,1 km/h (3 Bft) 95,74 %
11.12.2019 06:30 3,9 C 3,3 C 2,8 C 98 % 1011,0 hPa 0,2 l/m 0 min 2 min 0 W/m 16,1 km/h (3 Bft) 95,74 %
11.12.2019 06:32 3,9 C 3,3 C 2,8 C 98 % 1010,9 hPa 0,0 l/m 0 min 2 min 0 W/m 19,3 km/h (3 Bft) 93,62 %
11.12.2019 06:34 3,9 C 3,3 C 2,8 C 98 % 1010,9 hPa 0,0 l/m 0 min 2 min 0 W/m 12,9 km/h (3 Bft) 95,65 %
11.12.2019 06:36 3,9 C 3,3 C 2,8 C 98 % 1011,0 hPa 0,0 l/m 0 min 2 min 0 W/m 19,3 km/h (3 Bft) 95,74 %
11.12.2019 06:38 4,0 C 3,3 C 2,8 C 98 % 1011,0 hPa 0,2 l/m 0 min 2 min 0 W/m 16,1 km/h (3 Bft) 93,62 %
11.12.2019 06:40 4,0 C 3,3 C 2,8 C 98 % 1010,9 hPa 0,0 l/m 0 min 2 min 0 W/m 12,9 km/h (3 Bft) 93,62 %
11.12.2019 06:42 4,0 C 3,3 C 2,8 C 98 % 1011,0 hPa 0,0 l/m 0 min 2 min 0 W/m 16,1 km/h (3 Bft) 95,74 %
11.12.2019 06:44 4,0 C 3,3 C 2,8 C 98 % 1010,9 hPa 0,0 l/m 0 min 2 min 0 W/m 16,1 km/h (3 Bft) 95,74 %
11.12.2019 06:46 4,0 C 3,3 C 2,8 C 98 % 1010,9 hPa 0,0 l/m 0 min 2 min 0 W/m 19,3 km/h (3 Bft) 93,48 %
11.12.2019 06:48 4,1 C 3,3 C 2,8 C 98 % 1010,9 hPa 0,2 l/m 0 min 2 min 0 W/m 16,1 km/h (3 Bft) 95,74 %
11.12.2019 06:50 4,1 C 3,3 C 2,8 C 98 % 1010,9 hPa 0,0 l/m 0 min 2 min 0 W/m 12,9 km/h (3 Bft) 95,74 %
11.12.2019 06:52 4,1 C 3,3 C 2,8 C 98 % 1010,9 hPa 0,0 l/m 0 min 2 min 0 W/m 19,3 km/h (3 Bft) 93,62 %
11.12.2019 06:54 4,1 C 3,3 C 2,8 C 98 % 1010,9 hPa 0,0 l/m 0 min 2 min 0 W/m 12,9 km/h (3 Bft) 95,74 %
11.12.2019 06:56 4,1 C 3,3 C 2,8 C 98 % 1010,9 hPa 0,0 l/m 0 min 2 min 0 W/m 16,1 km/h (3 Bft) 91,30 %
11.12.2019 06:58 4,1 C 3,3 C 2,8 C 98 % 1010,9 hPa 0,0 l/m 0 min 2 min 0 W/m 16,1 km/h (3 Bft) 93,62 %
11.12.2019 07:00 4,1 C 3,3 C 2,8 C 98 % 1010,9 hPa 0,2 l/m 0 min 2 min 0 W/m 12,9 km/h (3 Bft) 97,87 %
11.12.2019 07:02 4,1 C 3,3 C 2,8 C 98 % 1010,9 hPa 0,0 l/m 0 min 2 min 0 W/m 19,3 km/h (3 Bft) 97,87 %
11.12.2019 07:04 4,1 C 3,3 C 2,8 C 98 % 1010,9 hPa 0,0 l/m 0 min 2 min 0 W/m 12,9 km/h (3 Bft) 95,74 %
11.12.2019 07:06 4,2 C 3,3 C 2,8 C 98 % 1010,8 hPa 0,0 l/m 0 min 2 min 0 W/m 12,9 km/h (3 Bft) 97,87 %
11.12.2019 07:08 4,2 C 3,3 C 2,8 C 98 % 1010,8 hPa 0,0 l/m 0 min 2 min 0 W/m 12,9 km/h (3 Bft) 95,74 %
11.12.2019 07:10 4,2 C 3,3 C 2,8 C 98 % 1010,8 hPa 0,2 l/m 0 min 2 min 0 W/m 16,1 km/h (3 Bft) 97,83 %
11.12.2019 07:12 4,2 C 3,3 C 2,8 C 98 % 1010,9 hPa 0,0 l/m 0 min 2 min 0 W/m 16,1 km/h (3 Bft) 97,87 %
11.12.2019 07:14 4,2 C 3,3 C 2,8 C 98 % 1010,8 hPa 0,0 l/m 0 min 2 min 0 W/m 16,1 km/h (3 Bft) 100,00 %
11.12.2019 07:16 4,2 C 3,3 C 2,8 C 98 % 1010,8 hPa 0,0 l/m 0 min 2 min 0 W/m 12,9 km/h (3 Bft) 97,87 %
11.12.2019 07:18 4,2 C 3,3 C 2,8 C 98 % 1010,8 hPa 0,0 l/m 0 min 2 min 0 W/m 16,1 km/h (3 Bft) 97,87 %
11.12.2019 07:20 4,2 C 3,3 C 2,8 C 98 % 1010,8 hPa 0,0 l/m 0 min 2 min 0 W/m 16,1 km/h (3 Bft) 100,00 %
11.12.2019 07:22 4,2 C 3,3 C 2,8 C 98 % 1010,7 hPa 0,0 l/m 0 min 2 min 0 W/m 19,3 km/h (3 Bft) 97,87 %
11.12.2019 07:24 4,2 C 3,3 C 2,8 C 98 % 1010,7 hPa 0,0 l/m 0 min 2 min 0 W/m 16,1 km/h (3 Bft) 100,00 %
11.12.2019 07:26 4,2 C 3,3 C 2,8 C 98 % 1010,7 hPa 0,0 l/m 0 min 2 min 0 W/m 12,9 km/h (3 Bft) 100,00 %
11.12.2019 07:28 4,2 C 3,3 C 2,8 C 98 % 1010,7 hPa 0,2 l/m 0 min 2 min 0 W/m 16,1 km/h (3 Bft) 97,87 %
11.12.2019 07:30 4,2 C 3,3 C 2,8 C 98 % 1010,7 hPa 0,0 l/m 0 min 2 min 0 W/m 9,7 km/h (2 Bft) 100,00 %
11.12.2019 07:32 4,2 C 3,3 C 2,8 C 98 % 1010,6 hPa 0,0 l/m 0 min 2 min 0 W/m 12,9 km/h (3 Bft) 100,00 %
11.12.2019 07:34 4,2 C 3,3 C 2,8 C 98 % 1010,6 hPa 0,2 l/m 0 min 2 min 0 W/m 16,1 km/h (3 Bft) 100,00 %
11.12.2019 07:36 4,2 C 3,3 C 2,8 C 99 % 1010,6 hPa 0,0 l/m 0 min 2 min 0 W/m 12,9 km/h (3 Bft) 100,00 %
11.12.2019 07:38 4,2 C 3,3 C 2,8 C 99 % 1010,6 hPa 0,0 l/m 0 min 2 min 0 W/m 6,4 km/h (2 Bft) 100,00 %
11.12.2019 07:40 4,2 C 3,3 C 2,8 C 99 % 1010,6 hPa 0,0 l/m 0 min 2 min 0 W/m 6,4 km/h (2 Bft) 100,00 %
11.12.2019 07:42 4,2 C 3,3 C 2,8 C 99 % 1010,5 hPa 0,2 l/m 0 min 2 min 0 W/m 12,9 km/h (3 Bft) 97,87 %
11.12.2019 07:44 4,2 C 3,3 C 2,8 C 99 % 1010,6 hPa 0,0 l/m 0 min 2 min 0 W/m 12,9 km/h (3 Bft) 100,00 %
11.12.2019 07:46 4,3 C 3,3 C 2,8 C 99 % 1010,6 hPa 0,2 l/m 0 min 2 min 0 W/m 12,9 km/h (3 Bft) 100,00 %
11.12.2019 07:48 4,3 C 3,3 C 3,3 C 99 % 1010,5 hPa 0,0 l/m 0 min 2 min 0 W/m 6,4 km/h (2 Bft) 97,87 %
11.12.2019 07:50 4,3 C 3,3 C 3,3 C 99 % 1010,5 hPa 0,2 l/m 0 min 2 min 0 W/m 16,1 km/h (3 Bft) 100,00 %
11.12.2019 07:52 4,3 C 3,3 C 3,3 C 99 % 1010,5 hPa 0,0 l/m 0 min 2 min 0 W/m 16,1 km/h (3 Bft) 100,00 %
11.12.2019 07:54 4,3 C 3,3 C 3,3 C 99 % 1010,5 hPa 0,0 l/m 0 min 2 min 0 W/m 16,1 km/h (3 Bft) 97,87 %
11.12.2019 07:56 4,3 C 3,3 C 3,3 C 99 % 1010,5 hPa 0,2 l/m 0 min 2 min 0 W/m 6,4 km/h (2 Bft) 100,00 %
11.12.2019 07:58 4,3 C 3,3 C 3,3 C 99 % 1010,5 hPa 0,0 l/m 0 min 2 min 0 W/m 12,9 km/h (3 Bft) 97,87 %
11.12.2019 08:00 4,3 C 3,3 C 3,3 C 99 % 1010,5 hPa 0,0 l/m 0 min 2 min 0 W/m 16,1 km/h (3 Bft) 100,00 %
11.12.2019 08:02 4,3 C 3,3 C 3,3 C 99 % 1010,5 hPa 0,0 l/m 0 min 2 min 0 W/m 19,3 km/h (3 Bft) 100,00 %
11.12.2019 08:04 4,3 C 3,9 C 3,3 C 99 % 1010,5 hPa 0,0 l/m 0 min 2 min 0 W/m 16,1 km/h (3 Bft) 97,87 %
11.12.2019 08:06 4,3 C 3,9 C 3,3 C 99 % 1010,4 hPa 0,0 l/m 0 min 2 min 0 W/m 16,1 km/h (3 Bft) 100,00 %
11.12.2019 08:08 4,4 C 3,9 C 3,3 C 99 % 1010,5 hPa 0,2 l/m 0 min 2 min 0 W/m 16,1 km/h (3 Bft) 97,87 %
11.12.2019 08:10 4,4 C 3,9 C 3,3 C 99 % 1010,4 hPa 0,0 l/m 0 min 2 min 0 W/m 16,1 km/h (3 Bft) 97,87 %
11.12.2019 08:12 4,4 C 3,9 C 3,3 C 99 % 1010,4 hPa 0,0 l/m 0 min 2 min 0 W/m 6,4 km/h (2 Bft) 97,87 %
11.12.2019 08:14 4,4 C 3,9 C 3,3 C 99 % 1010,4 hPa 0,2 l/m 0 min 2 min 0 W/m 16,1 km/h (3 Bft) 97,87 %
11.12.2019 08:16 4,4 C 3,9 C 3,3 C 99 % 1010,4 hPa 0,0 l/m 0 min 2 min 0 W/m 6,4 km/h (2 Bft) 95,74 %
11.12.2019 08:18 4,4 C 3,9 C 3,3 C 99 % 1010,4 hPa 0,0 l/m 0 min 2 min 0 W/m 19,3 km/h (3 Bft) 93,48 %
11.12.2019 08:20 4,4 C 3,9 C 3,3 C 99 % 1010,3 hPa 0,0 l/m 0 min 2 min 0 W/m 16,1 km/h (3 Bft) 97,87 %
11.12.2019 08:22 4,4 C 3,9 C 3,3 C 99 % 1010,3 hPa 0,0 l/m 0 min 2 min 0 W/m 16,1 km/h (3 Bft) 95,74 %
11.12.2019 08:24 4,4 C 3,9 C 3,3 C 99 % 1010,3 hPa 0,2 l/m 0 min 2 min 0 W/m 12,9 km/h (3 Bft) 97,87 %
11.12.2019 08:26 4,4 C 3,9 C 3,3 C 99 % 1010,4 hPa 0,0 l/m 0 min 2 min 0 W/m 12,9 km/h (3 Bft) 97,87 %
11.12.2019 08:28 4,4 C 3,9 C 3,3 C 99 % 1010,3 hPa 0,0 l/m 0 min 2 min 0 W/m 12,9 km/h (3 Bft) 97,87 %
11.12.2019 08:30 4,4 C 3,9 C 3,3 C 99 % 1010,3 hPa 0,2 l/m 0 min 2 min 0 W/m 12,9 km/h (3 Bft) 97,83 %
11.12.2019 08:32 4,4 C 3,9 C 3,3 C 99 % 1010,3 hPa 0,0 l/m 0 min 2 min 0 W/m 19,3 km/h (3 Bft) 97,87 %
11.12.2019 08:34 4,4 C 3,9 C 3,3 C 99 % 1010,2 hPa 0,0 l/m 0 min 2 min 0 W/m 6,4 km/h (2 Bft) 95,74 %
11.12.2019 08:36 4,5 C 3,9 C 3,3 C 99 % 1010,2 hPa 0,0 l/m 0 min 2 min 0 W/m 3,2 km/h (1 Bft) 97,87 %
11.12.2019 08:38 4,5 C 3,9 C 3,3 C 99 % 1010,2 hPa 0,0 l/m 0 min 2 min 0 W/m 12,9 km/h (3 Bft) 97,87 %
11.12.2019 08:40 4,5 C 3,9 C 3,3 C 99 % 1010,2 hPa 0,2 l/m 0 min 2 min 0 W/m 12,9 km/h (3 Bft) 97,87 %
11.12.2019 08:42 4,5 C 3,9 C 3,3 C 99 % 1010,2 hPa 0,0 l/m 0 min 2 min 0 W/m 6,4 km/h (2 Bft) 97,83 %
11.12.2019 08:44 4,5 C 3,9 C 3,3 C 99 % 1010,2 hPa 0,0 l/m 0 min 2 min 0 W/m 6,4 km/h (2 Bft) 97,87 %
11.12.2019 08:46 4,5 C 3,9 C 3,3 C 99 % 1010,2 hPa 0,0 l/m 0 min 2 min 0 W/m 6,4 km/h (2 Bft) 97,87 %
11.12.2019 08:48 4,5 C 3,9 C 3,3 C 99 % 1010,2 hPa 0,0 l/m 0 min 2 min 0 W/m 12,9 km/h (3 Bft) 97,87 %
11.12.2019 08:50 4,5 C 3,9 C 3,3 C 99 % 1010,2 hPa 0,0 l/m 0 min 2 min 0 W/m 3,2 km/h (1 Bft) 97,87 %
11.12.2019 08:52 4,5 C 3,9 C 3,3 C 99 % 1010,1 hPa 0,2 l/m 0 min 2 min 0 W/m 3,2 km/h (1 Bft) 93,48 %
11.12.2019 08:54 4,5 C 3,9 C 3,3 C 99 % 1010,1 hPa 0,0 l/m 0 min 2 min 0 W/m 3,2 km/h (1 Bft) 97,87 %
11.12.2019 08:56 4,5 C 3,9 C 3,3 C 99 % 1010,1 hPa 0,0 l/m 0 min 2 min 0 W/m 0,0 km/h (0 Bft) 95,74 %
11.12.2019 08:58 4,5 C 3,9 C 3,3 C 99 % 1010,2 hPa 0,0 l/m 0 min 2 min 0 W/m 6,4 km/h (2 Bft) 91,49 %
11.12.2019 09:00 4,6 C 3,9 C 3,3 C 99 % 1010,2 hPa 0,0 l/m 0 min 2 min 0 W/m 6,4 km/h (2 Bft) 93,62 %
11.12.2019 09:02 4,5 C 3,9 C 3,3 C 99 % 1010,1 hPa 0,0 l/m 0 min 2 min 0 W/m 6,4 km/h (2 Bft) 95,74 %
11.12.2019 09:04 4,5 C 3,9 C 3,3 C 99 % 1010,1 hPa 0,0 l/m 0 min 2 min 0 W/m 12,9 km/h (3 Bft) 95,74 %
11.12.2019 09:06 4,6 C 3,9 C 3,3 C 99 % 1010,1 hPa 0,0 l/m 0 min 2 min 0 W/m 6,4 km/h (2 Bft) 93,48 %
11.12.2019 09:08 4,6 C 3,9 C 3,3 C 99 % 1010,1 hPa 0,2 l/m 0 min 2 min 0 W/m 6,4 km/h (2 Bft) 93,62 %
11.12.2019 09:10 4,6 C 3,9 C 3,3 C 99 % 1010,1 hPa 0,0 l/m 0 min 2 min 0 W/m 6,4 km/h (2 Bft) 95,74 %
11.12.2019 09:12 4,5 C 3,9 C 3,3 C 99 % 1010,1 hPa 0,0 l/m 0 min 2 min 0 W/m 12,9 km/h (3 Bft) 95,74 %
11.12.2019 09:14 4,5 C 3,9 C 3,3 C 99 % 1010,1 hPa 0,0 l/m 0 min 2 min 4 W/m 16,1 km/h (3 Bft) 93,62 %
11.12.2019 09:16 4,5 C 3,9 C 3,3 C 99 % 1010,1 hPa 0,0 l/m 0 min 2 min 5 W/m 12,9 km/h (3 Bft) 95,65 %
11.12.2019 09:18 4,6 C 3,9 C 3,3 C 99 % 1010,0 hPa 0,0 l/m 0 min 2 min 5 W/m 3,2 km/h (1 Bft) 93,62 %
11.12.2019 09:20 4,6 C 3,9 C 3,3 C 99 % 1010,0 hPa 0,0 l/m 0 min 2 min 5 W/m 12,9 km/h (3 Bft) 95,74 %
11.12.2019 09:22 4,6 C 3,9 C 3,3 C 99 % 1010,0 hPa 0,2 l/m 0 min 2 min 5 W/m 6,4 km/h (2 Bft) 95,74 %
11.12.2019 09:24 4,6 C 3,9 C 3,3 C 99 % 1010,0 hPa 0,0 l/m 0 min 2 min 5 W/m 12,9 km/h (3 Bft) 95,74 %
11.12.2019 09:26 4,6 C 3,9 C 3,3 C 99 % 1010,0 hPa 0,0 l/m 0 min 2 min 5 W/m 6,4 km/h (2 Bft) 93,62 %
11.12.2019 09:28 4,5 C 3,9 C 3,3 C 99 % 1010,0 hPa 0,0 l/m 0 min 2 min 5 W/m 6,4 km/h (2 Bft) 95,65 %
11.12.2019 09:30 4,5 C 3,9 C 3,3 C 99 % 1010,0 hPa 0,0 l/m 0 min 2 min 5 W/m 6,4 km/h (2 Bft) 95,74 %
11.12.2019 09:32 4,6 C 3,9 C 3,3 C 99 % 1009,9 hPa 0,0 l/m 0 min 2 min 5 W/m 12,9 km/h (3 Bft) 93,62 %
11.12.2019 09:34 4,6 C 3,9 C 3,3 C 99 % 1009,9 hPa 0,0 l/m 0 min 2 min 5 W/m 12,9 km/h (3 Bft) 91,49 %
11.12.2019 09:36 4,5 C 3,9 C 3,3 C 99 % 1009,9 hPa 0,2 l/m 0 min 2 min 6 W/m 16,1 km/h (3 Bft) 93,62 %
11.12.2019 09:38 4,5 C 3,9 C 3,3 C 99 % 1009,9 hPa 0,0 l/m 0 min 2 min 7 W/m 12,9 km/h (3 Bft) 97,87 %
11.12.2019 09:40 4,5 C 3,9 C 3,3 C 99 % 1009,9 hPa 0,0 l/m 0 min 2 min 9 W/m 16,1 km/h (3 Bft) 95,65 %
11.12.2019 09:42 4,5 C 3,9 C 3,3 C 99 % 1010,0 hPa 0,0 l/m 0 min 2 min 9 W/m 12,9 km/h (3 Bft) 97,87 %
11.12.2019 09:44 4,5 C 3,9 C 3,3 C 99 % 1010,0 hPa 0,0 l/m 0 min 2 min 9 W/m 12,9 km/h (3 Bft) 97,87 %
11.12.2019 09:46 4,5 C 3,9 C 3,3 C 99 % 1010,0 hPa 0,2 l/m 0 min 2 min 9 W/m 16,1 km/h (3 Bft) 95,74 %
11.12.2019 09:48 4,5 C 3,9 C 3,3 C 99 % 1010,0 hPa 0,0 l/m 0 min 2 min 9 W/m 12,9 km/h (3 Bft) 97,87 %
11.12.2019 09:50 4,5 C 3,9 C 3,3 C 99 % 1010,0 hPa 0,0 l/m 0 min 2 min 11 W/m 16,1 km/h (3 Bft) 95,65 %
11.12.2019 09:52 4,5 C 3,9 C 3,3 C 99 % 1010,0 hPa 0,0 l/m 0 min 2 min 12 W/m 6,4 km/h (2 Bft) 95,74 %
11.12.2019 09:54 4,6 C 3,9 C 3,3 C 99 % 1009,9 hPa 0,2 l/m 0 min 2 min 13 W/m 16,1 km/h (3 Bft) 97,87 %
11.12.2019 09:56 4,5 C 3,9 C 3,3 C 99 % 1009,9 hPa 0,0 l/m 0 min 2 min 15 W/m 12,9 km/h (3 Bft) 97,87 %
11.12.2019 09:58 4,5 C 3,9 C 3,3 C 99 % 1009,9 hPa 0,0 l/m 0 min 2 min 16 W/m 6,4 km/h (2 Bft) 100,00 %
11.12.2019 10:00 4,6 C 3,9 C 3,3 C 99 % 1009,9 hPa 0,0 l/m 0 min 2 min 16 W/m 6,4 km/h (2 Bft) 97,87 %
11.12.2019 10:02 4,6 C 3,9 C 3,3 C 99 % 1009,9 hPa 0,2 l/m 0 min 2 min 16 W/m 16,1 km/h (3 Bft) 100,00 %
11.12.2019 10:04 4,6 C 3,9 C 3,3 C 99 % 1009,9 hPa 0,0 l/m 0 min 2 min 16 W/m 16,1 km/h (3 Bft) 100,00 %
11.12.2019 10:06 4,6 C 3,9 C 3,3 C 99 % 1009,9 hPa 0,0 l/m 0 min 2 min 16 W/m 16,1 km/h (3 Bft) 97,87 %
11.12.2019 10:08 4,6 C 3,9 C 3,3 C 99 % 1009,8 hPa 0,0 l/m 0 min 2 min 16 W/m 16,1 km/h (3 Bft) 100,00 %
11.12.2019 10:10 4,6 C 3,9 C 3,3 C 99 % 1009,9 hPa 0,0 l/m 0 min 2 min 16 W/m 16,1 km/h (3 Bft) 100,00 %
11.12.2019 10:12 4,6 C 3,9 C 3,3 C 99 % 1009,8 hPa 0,0 l/m 0 min 2 min 16 W/m 16,1 km/h (3 Bft) 100,00 %
11.12.2019 10:14 4,6 C 3,9 C 3,3 C 99 % 1009,9 hPa 0,2 l/m 0 min 2 min 16 W/m 6,4 km/h (2 Bft) 51,22 %
11.12.2019 10:16 4,6 C 3,9 C 3,3 C 99 % 1009,8 hPa 0,0 l/m 0 min 2 min 16 W/m 12,9 km/h (3 Bft) 100,00 %
11.12.2019 10:18 4,6 C 3,9 C 3,3 C 99 % 1009,8 hPa 0,0 l/m 0 min 2 min 16 W/m 12,9 km/h (3 Bft) 100,00 %
11.12.2019 10:20 4,6 C 3,9 C 3,3 C 99 % 1009,8 hPa 0,0 l/m 0 min 2 min 16 W/m 6,4 km/h (2 Bft) 100,00 %
11.12.2019 10:22 4,6 C 3,9 C 3,3 C 99 % 1009,7 hPa 0,0 l/m 0 min 2 min 15 W/m 16,1 km/h (3 Bft) 97,87 %
11.12.2019 10:24 4,6 C 3,9 C 3,3 C 99 % 1009,7 hPa 0,0 l/m 0 min 2 min 14 W/m 16,1 km/h (3 Bft) 100,00 %
11.12.2019 10:26 4,6 C 3,9 C 3,3 C 99 % 1009,7 hPa 0,2 l/m 0 min 2 min 16 W/m 12,9 km/h (3 Bft) 100,00 %
11.12.2019 10:28 4,6 C 3,9 C 3,3 C 99 % 1009,7 hPa 0,0 l/m 0 min 2 min 18 W/m 12,9 km/h (3 Bft) 97,87 %
11.12.2019 10:30 4,6 C 3,9 C 3,3 C 99 % 1009,7 hPa 0,0 l/m 0 min 2 min 19 W/m 12,9 km/h (3 Bft) 100,00 %
11.12.2019 10:32 4,6 C 3,9 C 3,3 C 99 % 1009,7 hPa 0,0 l/m 0 min 2 min 19 W/m 16,1 km/h (3 Bft) 100,00 %
11.12.2019 10:34 4,6 C 3,9 C 3,3 C 99 % 1009,8 hPa 0,0 l/m 0 min 2 min 21 W/m 12,9 km/h (3 Bft) 95,74 %
11.12.2019 10:36 4,6 C 3,9 C 3,3 C 99 % 1009,7 hPa 0,0 l/m 0 min 2 min 19 W/m 16,1 km/h (3 Bft) 97,87 %
11.12.2019 10:38 4,6 C 3,9 C 3,3 C 99 % 1009,6 hPa 0,0 l/m 0 min 2 min 19 W/m 6,4 km/h (2 Bft) 100,00 %
11.12.2019 10:40 4,6 C 3,9 C 3,3 C 99 % 1009,7 hPa 0,2 l/m 0 min 2 min 18 W/m 3,2 km/h (1 Bft) 97,87 %
11.12.2019 10:42 4,6 C 3,9 C 3,3 C 99 % 1009,7 hPa 0,0 l/m 0 min 2 min 18 W/m 12,9 km/h (3 Bft) 100,00 %
11.12.2019 10:44 4,6 C 3,9 C 3,3 C 99 % 1009,7 hPa 0,0 l/m 0 min 2 min 20 W/m 3,2 km/h (1 Bft) 100,00 %
11.12.2019 10:46 4,6 C 3,9 C 3,3 C 99 % 1009,6 hPa 0,0 l/m 0 min 2 min 19 W/m 12,9 km/h (3 Bft) 100,00 %
11.12.2019 10:48 4,6 C 3,9 C 3,3 C 99 % 1009,6 hPa 0,0 l/m 0 min 2 min 21 W/m 6,4 km/h (2 Bft) 97,87 %
11.12.2019 10:50 4,6 C 3,9 C 3,3 C 99 % 1009,6 hPa 0,0 l/m 0 min 2 min 21 W/m 16,1 km/h (3 Bft) 100,00 %
11.12.2019 10:52 4,6 C 3,9 C 3,3 C 99 % 1009,6 hPa 0,0 l/m 0 min 2 min 20 W/m 6,4 km/h (2 Bft) 100,00 %
11.12.2019 10:54 4,6 C 3,9 C 3,3 C 99 % 1009,6 hPa 0,0 l/m 0 min 2 min 19 W/m 12,9 km/h (3 Bft) 100,00 %
11.12.2019 10:56 4,7 C 3,9 C 3,3 C 99 % 1009,5 hPa 0,0 l/m 0 min 2 min 16 W/m 12,9 km/h (3 Bft) 100,00 %
11.12.2019 10:58 4,7 C 3,9 C 3,3 C 99 % 1009,5 hPa 0,2 l/m 0 min 2 min 16 W/m 12,9 km/h (3 Bft) 100,00 %
11.12.2019 11:00 4,7 C 3,9 C 3,3 C 99 % 1009,5 hPa 0,0 l/m 0 min 2 min 16 W/m 12,9 km/h (3 Bft) 100,00 %
11.12.2019 11:02 4,7 C 3,9 C 3,3 C 99 % 1009,4 hPa 0,0 l/m 0 min 2 min 16 W/m 6,4 km/h (2 Bft) 97,87 %
11.12.2019 11:04 4,7 C 3,9 C 3,3 C 99 % 1009,4 hPa 0,0 l/m 0 min 2 min 15 W/m 6,4 km/h (2 Bft) 100,00 %
11.12.2019 11:06 4,7 C 3,9 C 3,3 C 99 % 1009,4 hPa 0,0 l/m 0 min 2 min 16 W/m 12,9 km/h (3 Bft) 100,00 %
11.12.2019 11:08 4,7 C 3,9 C 3,3 C 99 % 1009,4 hPa 0,0 l/m 0 min 2 min 16 W/m 6,4 km/h (2 Bft) 100,00 %
11.12.2019 11:10 4,7 C 3,9 C 3,3 C 99 % 1009,3 hPa 0,2 l/m 0 min 2 min 16 W/m 12,9 km/h (3 Bft) 100,00 %
11.12.2019 11:12 4,7 C 3,9 C 3,3 C 99 % 1009,3 hPa 0,0 l/m 0 min 2 min 14 W/m 12,9 km/h (3 Bft) 100,00 %
11.12.2019 11:14 4,7 C 3,9 C 3,3 C 99 % 1009,3 hPa 0,0 l/m 0 min 2 min 14 W/m 16,1 km/h (3 Bft) 100,00 %
11.12.2019 11:16 4,7 C 3,9 C 3,3 C 99 % 1009,3 hPa 0,0 l/m 0 min 2 min 13 W/m 6,4 km/h (2 Bft) 97,87 %
11.12.2019 11:18 4,7 C 3,9 C 3,3 C 99 % 1009,3 hPa 0,0 l/m 0 min 2 min 13 W/m 0,0 km/h (0 Bft) 97,87 %
11.12.2019 11:20 4,7 C 3,9 C 3,3 C 99 % 1009,2 hPa 0,2 l/m 0 min 2 min 12 W/m 0,0 km/h (0 Bft) 97,87 %
11.12.2019 11:22 4,7 C 3,9 C 3,3 C 99 % 1009,3 hPa 0,0 l/m 0 min 2 min 15 W/m 6,4 km/h (2 Bft) 100,00 %
11.12.2019 11:24 4,7 C 3,9 C 3,3 C 99 % 1009,2 hPa 0,0 l/m 0 min 2 min 17 W/m 3,2 km/h (1 Bft) 53,49 %
11.12.2019 11:26 4,7 C 3,9 C 3,3 C 99 % 1009,2 hPa 0,0 l/m 0 min 2 min 18 W/m 6,4 km/h (2 Bft) 100,00 %
11.12.2019 11:28 4,7 C 3,9 C 3,3 C 99 % 1009,2 hPa 0,0 l/m 0 min 2 min 16 W/m 6,4 km/h (2 Bft) 100,00 %
11.12.2019 11:30 4,7 C 3,9 C 3,3 C 99 % 1009,2 hPa 0,2 l/m 0 min 2 min 20 W/m 3,2 km/h (1 Bft) 95,74 %
11.12.2019 11:32 4,7 C 3,9 C 3,3 C 99 % 1009,0 hPa 0,0 l/m 0 min 2 min 21 W/m 6,4 km/h (2 Bft) 93,62 %
11.12.2019 11:34 4,7 C 3,9 C 3,3 C 100 % 1009,0 hPa 0,0 l/m 0 min 2 min 21 W/m 12,9 km/h (3 Bft) 93,62 %
11.12.2019 11:36 4,7 C 3,9 C 3,3 C 100 % 1009,0 hPa 0,0 l/m 0 min 2 min 21 W/m 16,1 km/h (3 Bft) 93,48 %
11.12.2019 11:38 4,7 C 3,9 C 3,3 C 100 % 1009,0 hPa 0,2 l/m 0 min 2 min 20 W/m 6,4 km/h (2 Bft) 95,74 %
11.12.2019 11:40 4,7 C 3,9 C 3,3 C 100 % 1009,0 hPa 0,0 l/m 0 min 2 min 19 W/m 12,9 km/h (3 Bft) 95,74 %
11.12.2019 11:42 4,7 C 3,9 C 3,3 C 100 % 1008,9 hPa 0,0 l/m 0 min 2 min 21 W/m 12,9 km/h (3 Bft) 93,62 %
11.12.2019 11:44 4,7 C 3,9 C 3,9 C 100 % 1008,9 hPa 0,0 l/m 0 min 2 min 24 W/m 16,1 km/h (3 Bft) 91,49 %
11.12.2019 11:46 4,7 C 3,9 C 3,9 C 100 % 1008,9 hPa 0,0 l/m 0 min 2 min 24 W/m 12,9 km/h (3 Bft) 93,62 %
11.12.2019 11:48 4,7 C 3,9 C 3,9 C 100 % 1008,8 hPa 0,0 l/m 0 min 2 min 21 W/m 12,9 km/h (3 Bft) 95,65 %
11.12.2019 11:50 4,7 C 3,9 C 3,9 C 100 % 1008,8 hPa 0,2 l/m 0 min 2 min 20 W/m 6,4 km/h (2 Bft) 95,74 %
11.12.2019 11:52 4,7 C 3,9 C 3,9 C 100 % 1008,8 hPa 0,0 l/m 0 min 2 min 20 W/m 6,4 km/h (2 Bft) 91,49 %
11.12.2019 11:54 4,7 C 3,9 C 3,9 C 100 % 1008,8 hPa 0,0 l/m 0 min 2 min 19 W/m 3,2 km/h (1 Bft) 93,62 %
11.12.2019 11:56 4,8 C 4,4 C 3,9 C 100 % 1008,7 hPa 0,0 l/m 0 min 2 min 19 W/m 0,0 km/h (0 Bft) 91,49 %
11.12.2019 11:58 4,8 C 4,4 C 3,9 C 100 % 1008,7 hPa 0,0 l/m 0 min 2 min 19 W/m 0,0 km/h (0 Bft) 93,48 %
11.12.2019 12:00 4,8 C 4,4 C 3,9 C 100 % 1008,7 hPa 0,2 l/m 0 min 2 min 20 W/m 0,0 km/h (0 Bft) 93,62 %
11.12.2019 12:02 4,8 C 4,4 C 3,9 C 100 % 1008,7 hPa 0,0 l/m 0 min 2 min 26 W/m 3,2 km/h (1 Bft) 91,49 %
11.12.2019 12:04 4,8 C 4,4 C 3,9 C 100 % 1008,7 hPa 0,0 l/m 0 min 2 min 26 W/m 3,2 km/h (1 Bft) 89,36 %
11.12.2019 12:08 4,8 C 4,4 C 3,9 C 99 % 1008,6 hPa 0,0 l/m 0 min 4 min 29 W/m 3,2 km/h (1 Bft) 91,49 %
11.12.2019 12:10 4,8 C 4,4 C 3,9 C 99 % 1008,6 hPa 0,0 l/m 0 min 2 min 34 W/m 3,2 km/h (1 Bft) 93,48 %
11.12.2019 12:12 4,9 C 4,4 C 3,9 C 99 % 1008,5 hPa 0,0 l/m 0 min 2 min 40 W/m 6,4 km/h (2 Bft) 91,49 %
11.12.2019 12:14 4,8 C 4,4 C 3,9 C 99 % 1008,5 hPa 0,0 l/m 0 min 2 min 37 W/m 6,4 km/h (2 Bft) 93,62 %
11.12.2019 12:16 4,9 C 4,4 C 3,9 C 100 % 1008,5 hPa 0,2 l/m 0 min 2 min 33 W/m 12,9 km/h (3 Bft) 95,74 %
11.12.2019 12:18 4,9 C 4,4 C 3,9 C 100 % 1008,4 hPa 0,0 l/m 0 min 2 min 30 W/m 6,4 km/h (2 Bft) 95,74 %
11.12.2019 12:20 4,9 C 4,4 C 3,9 C 100 % 1008,4 hPa 0,0 l/m 0 min 2 min 34 W/m 6,4 km/h (2 Bft) 95,74 %
11.12.2019 12:22 4,9 C 4,4 C 3,9 C 100 % 1008,4 hPa 0,0 l/m 0 min 2 min 34 W/m 6,4 km/h (2 Bft) 93,48 %
11.12.2019 12:24 4,9 C 4,4 C 3,9 C 100 % 1008,4 hPa 0,0 l/m 0 min 2 min 33 W/m 6,4 km/h (2 Bft) 95,74 %
11.12.2019 12:26 4,9 C 4,4 C 3,9 C 100 % 1008,4 hPa 0,0 l/m 0 min 2 min 32 W/m 3,2 km/h (1 Bft) 93,62 %
11.12.2019 12:28 4,9 C 4,4 C 3,9 C 100 % 1008,3 hPa 0,0 l/m 0 min 2 min 34 W/m 3,2 km/h (1 Bft) 95,74 %
11.12.2019 12:30 4,9 C 4,4 C 3,9 C 100 % 1008,3 hPa 0,0 l/m 0 min 2 min 28 W/m 0,0 km/h (0 Bft) 97,87 %
11.12.2019 12:32 4,9 C 4,4 C 3,9 C 100 % 1008,3 hPa 0,2 l/m 0 min 2 min 25 W/m 3,2 km/h (1 Bft) 95,74 %
11.12.2019 12:34 4,9 C 4,4 C 3,9 C 100 % 1008,2 hPa 0,0 l/m 0 min 2 min 24 W/m 3,2 km/h (1 Bft) 97,83 %
11.12.2019 12:36 4,9 C 4,4 C 3,9 C 100 % 1008,2 hPa 0,0 l/m 0 min 2 min 25 W/m 6,4 km/h (2 Bft) 97,87 %
11.12.2019 12:38 4,9 C 4,4 C 3,9 C 100 % 1008,2 hPa 0,0 l/m 0 min 2 min 27 W/m 3,2 km/h (1 Bft) 97,87 %
11.12.2019 12:40 4,9 C 4,4 C 3,9 C 100 % 1008,1 hPa 0,0 l/m 0 min 2 min 32 W/m 3,2 km/h (1 Bft) 97,87 %
11.12.2019 12:42 5,0 C 4,4 C 3,9 C 100 % 1008,1 hPa 0,0 l/m 0 min 2 min 32 W/m 0,0 km/h (0 Bft) 95,74 %
11.12.2019 12:44 5,0 C 4,4 C 3,9 C 100 % 1008,1 hPa 0,0 l/m 0 min 2 min 32 W/m 0,0 km/h (0 Bft) 97,87 %
11.12.2019 12:46 5,0 C 4,4 C 3,9 C 100 % 1008,1 hPa 0,0 l/m 0 min 2 min 28 W/m 0,0 km/h (0 Bft) 100,00 %
11.12.2019 12:48 5,0 C 4,4 C 3,9 C 100 % 1008,1 hPa 0,2 l/m 0 min 2 min 32 W/m 0,0 km/h (0 Bft) 100,00 %
11.12.2019 12:50 5,1 C 4,4 C 3,9 C 100 % 1008,0 hPa 0,0 l/m 0 min 2 min 37 W/m 0,0 km/h (0 Bft) 100,00 %
11.12.2019 12:52 5,1 C 4,4 C 3,9 C 100 % 1008,0 hPa 0,0 l/m 0 min 2 min 36 W/m 0,0 km/h (0 Bft) 95,74 %
11.12.2019 12:54 5,1 C 4,4 C 4,4 C 100 % 1008,0 hPa 0,0 l/m 0 min 2 min 37 W/m 0,0 km/h (0 Bft) 97,87 %
11.12.2019 12:56 5,1 C 4,4 C 4,4 C 100 % 1007,9 hPa 0,0 l/m 0 min 2 min 40 W/m 0,0 km/h (0 Bft) 100,00 %
11.12.2019 12:58 5,1 C 4,4 C 4,4 C 100 % 1007,9 hPa 0,0 l/m 0 min 0 min 43 W/m 0,0 km/h (0 Bft) 100,00 %
11.12.2019 13:00 5,1 C 4,4 C 4,4 C 100 % 1007,9 hPa 0,0 l/m 0 min 2 min 45 W/m 0,0 km/h (0 Bft) 100,00 %
11.12.2019 13:02 5,1 C 4,4 C 4,4 C 100 % 1007,8 hPa 0,0 l/m 0 min 2 min 44 W/m 0,0 km/h (0 Bft) 100,00 %
11.12.2019 13:04 5,1 C 5,0 C 4,4 C 100 % 1007,7 hPa 0,0 l/m 0 min 2 min 39 W/m 0,0 km/h (0 Bft) 100,00 %
11.12.2019 13:06 5,2 C 4,4 C 4,4 C 100 % 1007,7 hPa 0,0 l/m 0 min 2 min 39 W/m 0,0 km/h (0 Bft) 95,74 %
11.12.2019 13:08 5,2 C 4,4 C 4,4 C 100 % 1007,7 hPa 0,0 l/m 0 min 2 min 40 W/m 0,0 km/h (0 Bft) 100,00 %
11.12.2019 13:10 5,2 C 5,0 C 4,4 C 100 % 1007,7 hPa 0,0 l/m 0 min 0 min 37 W/m 0,0 km/h (0 Bft) 93,62 %
11.12.2019 13:12 5,2 C 5,0 C 4,4 C 100 % 1007,7 hPa 0,0 l/m 0 min 0 min 32 W/m 0,0 km/h (0 Bft) 100,00 %
11.12.2019 13:14 5,2 C 5,0 C 4,4 C 100 % 1007,7 hPa 0,2 l/m 0 min 2 min 40 W/m 0,0 km/h (0 Bft) 95,74 %
11.12.2019 13:16 5,3 C 5,0 C 4,4 C 100 % 1007,7 hPa 0,0 l/m 0 min 0 min 47 W/m 6,4 km/h (2 Bft) 97,87 %
11.12.2019 13:18 5,3 C 4,4 C 4,4 C 100 % 1007,7 hPa 0,0 l/m 0 min 2 min 54 W/m 12,9 km/h (3 Bft) 97,87 %
11.12.2019 13:20 5,3 C 4,4 C 4,4 C 100 % 1007,6 hPa 0,0 l/m 0 min 0 min 53 W/m 16,1 km/h (3 Bft) 100,00 %
11.12.2019 13:22 5,3 C 4,4 C 4,4 C 100 % 1007,6 hPa 0,0 l/m 0 min 2 min 54 W/m 6,4 km/h (2 Bft) 100,00 %
11.12.2019 13:24 5,3 C 4,4 C 4,4 C 100 % 1007,6 hPa 0,0 l/m 0 min 2 min 54 W/m 3,2 km/h (1 Bft) 100,00 %
11.12.2019 13:26 5,3 C 4,4 C 4,4 C 100 % 1007,6 hPa 0,0 l/m 0 min 0 min 54 W/m 12,9 km/h (3 Bft) 100,00 %
11.12.2019 13:28 5,3 C 4,4 C 4,4 C 100 % 1007,5 hPa 0,0 l/m 0 min 0 min 56 W/m 12,9 km/h (3 Bft) 100,00 %
11.12.2019 13:30 5,3 C 4,4 C 4,4 C 100 % 1007,5 hPa 0,0 l/m 0 min 0 min 63 W/m 3,2 km/h (1 Bft) 100,00 %
11.12.2019 13:32 5,3 C 5,0 C 4,4 C 100 % 1007,4 hPa 0,0 l/m 0 min 2 min 64 W/m 0,0 km/h (0 Bft) 100,00 %
11.12.2019 13:34 5,3 C 4,4 C 4,4 C 100 % 1007,3 hPa 0,0 l/m 0 min 2 min 67 W/m 3,2 km/h (1 Bft) 97,87 %
11.12.2019 13:36 5,3 C 4,4 C 4,4 C 100 % 1007,2 hPa 0,0 l/m 0 min 2 min 67 W/m 16,1 km/h (3 Bft) 100,00 %
11.12.2019 13:38 5,3 C 4,4 C 4,4 C 100 % 1007,2 hPa 0,0 l/m 0 min 2 min 63 W/m 6,4 km/h (2 Bft) 97,87 %
11.12.2019 13:40 5,3 C 4,4 C 4,4 C 100 % 1007,2 hPa 0,0 l/m 0 min 2 min 59 W/m 12,9 km/h (3 Bft) 100,00 %
11.12.2019 13:42 5,3 C 4,4 C 3,9 C 100 % 1007,1 hPa 0,0 l/m 0 min 2 min 55 W/m 12,9 km/h (3 Bft) 100,00 %
11.12.2019 13:44 5,3 C 4,4 C 4,4 C 100 % 1007,1 hPa 0,0 l/m 0 min 2 min 55 W/m 6,4 km/h (2 Bft) 97,83 %
11.12.2019 13:46 5,3 C 4,4 C 4,4 C 100 % 1007,0 hPa 0,0 l/m 0 min 2 min 58 W/m 3,2 km/h (1 Bft) 97,87 %
11.12.2019 13:48 5,3 C 4,4 C 4,4 C 100 % 1007,0 hPa 0,0 l/m 0 min 2 min 56 W/m 12,9 km/h (3 Bft) 100,00 %
11.12.2019 13:50 5,3 C 4,4 C 4,4 C 100 % 1007,0 hPa 0,0 l/m 0 min 2 min 54 W/m 12,9 km/h (3 Bft) 100,00 %
11.12.2019 13:52 5,3 C 4,4 C 4,4 C 100 % 1007,0 hPa 0,0 l/m 0 min 2 min 50 W/m 3,2 km/h (1 Bft) 100,00 %
11.12.2019 13:54 5,3 C 4,4 C 4,4 C 100 % 1006,9 hPa 0,0 l/m 0 min 2 min 44 W/m 6,4 km/h (2 Bft) 100,00 %
11.12.2019 13:56 5,3 C 4,4 C 4,4 C 100 % 1006,9 hPa 0,0 l/m 0 min 2 min 38 W/m 3,2 km/h (1 Bft) 100,00 %
11.12.2019 13:58 5,3 C 4,4 C 4,4 C 100 % 1006,9 hPa 0,0 l/m 0 min 2 min 40 W/m 6,4 km/h (2 Bft) 100,00 %
11.12.2019 14:00 5,3 C 4,4 C 4,4 C 100 % 1006,8 hPa 0,0 l/m 0 min 2 min 36 W/m 3,2 km/h (1 Bft) 97,87 %
11.12.2019 14:02 5,3 C 4,4 C 4,4 C 100 % 1006,9 hPa 0,0 l/m 0 min 2 min 33 W/m 12,9 km/h (3 Bft) 100,00 %
11.12.2019 14:04 5,3 C 4,4 C 4,4 C 100 % 1006,9 hPa 0,0 l/m 0 min 2 min 36 W/m 3,2 km/h (1 Bft) 97,87 %
11.12.2019 14:06 5,3 C 4,4 C 4,4 C 100 % 1006,9 hPa 0,0 l/m 0 min 0 min 39 W/m 3,2 km/h (1 Bft) 95,65 %
11.12.2019 14:08 5,3 C 4,4 C 4,4 C 100 % 1006,8 hPa 0,0 l/m 0 min 0 min 37 W/m 6,4 km/h (2 Bft) 97,87 %
11.12.2019 14:10 5,3 C 4,4 C 4,4 C 100 % 1006,8 hPa 0,0 l/m 0 min 0 min 37 W/m 12,9 km/h (3 Bft) 95,74 %
11.12.2019 14:12 5,3 C 4,4 C 3,9 C 100 % 1006,9 hPa 0,0 l/m 0 min 0 min 33 W/m 6,4 km/h (2 Bft) 97,87 %
11.12.2019 14:14 5,3 C 4,4 C 3,9 C 100 % 1006,9 hPa 0,0 l/m 0 min 0 min 28 W/m 0,0 km/h (0 Bft) 97,87 %
11.12.2019 14:16 5,3 C 4,4 C 3,9 C 100 % 1006,8 hPa 0,0 l/m 0 min 0 min 24 W/m 0,0 km/h (0 Bft) 97,87 %
11.12.2019 14:18 5,3 C 4,4 C 3,9 C 100 % 1006,9 hPa 0,0 l/m 0 min 0 min 19 W/m 0,0 km/h (0 Bft) 97,83 %
11.12.2019 14:20 5,3 C 4,4 C 3,9 C 100 % 1006,9 hPa 0,0 l/m 0 min 0 min 18 W/m 0,0 km/h (0 Bft) 97,87 %
11.12.2019 14:22 5,3 C 4,4 C 3,9 C 100 % 1006,9 hPa 0,0 l/m 0 min 0 min 18 W/m 12,9 km/h (3 Bft) 95,74 %
11.12.2019 14:24 5,2 C 4,4 C 3,9 C 100 % 1006,9 hPa 0,0 l/m 0 min 0 min 16 W/m 6,4 km/h (2 Bft) 97,87 %
11.12.2019 14:26 5,2 C 4,4 C 3,9 C 100 % 1006,8 hPa 0,0 l/m 0 min 0 min 18 W/m 12,9 km/h (3 Bft) 97,87 %
11.12.2019 14:28 5,2 C 4,4 C 3,9 C 100 % 1006,8 hPa 0,0 l/m 0 min 0 min 17 W/m 16,1 km/h (3 Bft) 93,62 %
11.12.2019 14:30 5,2 C 4,4 C 3,9 C 100 % 1006,8 hPa 0,2 l/m 0 min 0 min 16 W/m 3,2 km/h (1 Bft) 93,48 %
11.12.2019 14:32 5,2 C 4,4 C 3,9 C 100 % 1006,8 hPa 0,0 l/m 0 min 0 min 16 W/m 6,4 km/h (2 Bft) 95,74 %
11.12.2019 14:34 5,2 C 4,4 C 3,9 C 100 % 1006,8 hPa 0,0 l/m 0 min 0 min 17 W/m 6,4 km/h (2 Bft) 97,87 %
11.12.2019 14:36 5,2 C 4,4 C 3,9 C 100 % 1006,7 hPa 0,0 l/m 0 min 0 min 19 W/m 12,9 km/h (3 Bft) 97,87 %
11.12.2019 14:38 5,2 C 4,4 C 3,9 C 100 % 1006,7 hPa 0,0 l/m 0 min 0 min 19 W/m 6,4 km/h (2 Bft) 95,74 %
11.12.2019 14:40 5,1 C 4,4 C 3,9 C 100 % 1006,7 hPa 0,0 l/m 0 min 0 min 19 W/m 16,1 km/h (3 Bft) 93,62 %
11.12.2019 14:42 5,1 C 4,4 C 3,9 C 100 % 1006,8 hPa 0,0 l/m 0 min 2 min 20 W/m 6,4 km/h (2 Bft) 95,65 %
11.12.2019 14:44 5,1 C 4,4 C 3,9 C 100 % 1006,8 hPa 0,0 l/m 0 min 0 min 22 W/m 12,9 km/h (3 Bft) 95,74 %
11.12.2019 14:46 5,1 C 4,4 C 3,9 C 100 % 1006,8 hPa 0,0 l/m 0 min 0 min 23 W/m 12,9 km/h (3 Bft) 97,87 %
11.12.2019 14:48 5,1 C 4,4 C 3,9 C 100 % 1006,8 hPa 0,0 l/m 0 min 0 min 23 W/m 3,2 km/h (1 Bft) 97,87 %
11.12.2019 14:50 5,1 C 4,4 C 3,9 C 100 % 1006,8 hPa 0,0 l/m 0 min 0 min 20 W/m 6,4 km/h (2 Bft) 95,74 %
11.12.2019 14:52 5,1 C 4,4 C 3,9 C 100 % 1006,7 hPa 0,0 l/m 0 min 0 min 21 W/m 12,9 km/h (3 Bft) 95,65 %
11.12.2019 14:54 5,1 C 4,4 C 3,9 C 100 % 1006,7 hPa 0,0 l/m 0 min 0 min 23 W/m 12,9 km/h (3 Bft) 95,74 %
11.12.2019 14:56 5,1 C 4,4 C 3,9 C 100 % 1006,7 hPa 0,0 l/m 0 min 0 min 22 W/m 6,4 km/h (2 Bft) 95,74 %
11.12.2019 14:58 5,1 C 4,4 C 3,9 C 100 % 1006,7 hPa 0,0 l/m 0 min 0 min 20 W/m 3,2 km/h (1 Bft) 91,84 %
11.12.2019 15:00 5,1 C 4,4 C 3,9 C 100 % 1006,7 hPa 0,0 l/m 0 min 0 min 19 W/m 6,4 km/h (2 Bft) 95,74 %
11.12.2019 15:02 5,1 C 4,4 C 3,9 C 100 % 1006,7 hPa 0,0 l/m 0 min 0 min 19 W/m 3,2 km/h (1 Bft) 95,74 %
11.12.2019 15:04 5,1 C 4,4 C 3,9 C 100 % 1006,7 hPa 0,0 l/m 0 min 0 min 18 W/m 16,1 km/h (3 Bft) 53,49 %
11.12.2019 15:06 5,1 C 4,4 C 3,9 C 100 % 1006,7 hPa 0,0 l/m 0 min 0 min 17 W/m 0,0 km/h (0 Bft) 93,62 %
11.12.2019 15:08 5,1 C 4,4 C 3,9 C 100 % 1006,7 hPa 0,0 l/m 0 min 0 min 19 W/m 3,2 km/h (1 Bft) 95,74 %
11.12.2019 15:10 5,1 C 4,4 C 3,9 C 100 % 1006,7 hPa 0,0 l/m 0 min 0 min 21 W/m 3,2 km/h (1 Bft) 95,65 %
11.12.2019 15:12 5,1 C 4,4 C 3,9 C 100 % 1006,8 hPa 0,0 l/m 0 min 0 min 18 W/m 6,4 km/h (2 Bft) 95,74 %
11.12.2019 15:14 5,1 C 4,4 C 3,9 C 100 % 1006,7 hPa 0,0 l/m 0 min 0 min 14 W/m 3,2 km/h (1 Bft) 95,74 %
11.12.2019 15:16 5,1 C 4,4 C 3,9 C 100 % 1006,7 hPa 0,0 l/m 0 min 0 min 17 W/m 6,4 km/h (2 Bft) 93,62 %
11.12.2019 15:18 5,1 C 4,4 C 3,9 C 100 % 1006,7 hPa 0,0 l/m 0 min 0 min 18 W/m 3,2 km/h (1 Bft) 95,74 %
11.12.2019 15:20 5,1 C 4,4 C 3,9 C 100 % 1006,7 hPa 0,0 l/m 0 min 0 min 16 W/m 0,0 km/h (0 Bft) 93,62 %
11.12.2019 15:22 5,1 C 4,4 C 3,9 C 100 % 1006,7 hPa 0,0 l/m 0 min 0 min 16 W/m 0,0 km/h (0 Bft) 95,65 %
11.12.2019 15:24 5,1 C 4,4 C 3,9 C 100 % 1006,6 hPa 0,0 l/m 0 min 0 min 15 W/m 6,4 km/h (2 Bft) 95,74 %
11.12.2019 15:26 5,1 C 4,4 C 3,9 C 100 % 1006,6 hPa 0,0 l/m 0 min 0 min 16 W/m 3,2 km/h (1 Bft) 95,74 %
11.12.2019 15:28 5,1 C 4,4 C 3,9 C 100 % 1006,5 hPa 0,0 l/m 0 min 0 min 17 W/m 3,2 km/h (1 Bft) 95,74 %
11.12.2019 15:30 5,1 C 4,4 C 3,9 C 100 % 1006,5 hPa 0,0 l/m 0 min 0 min 18 W/m 6,4 km/h (2 Bft) 93,62 %
11.12.2019 15:32 5,1 C 4,4 C 3,9 C 100 % 1006,4 hPa 0,0 l/m 0 min 0 min 18 W/m 6,4 km/h (2 Bft) 95,74 %
11.12.2019 15:34 5,1 C 4,4 C 3,9 C 100 % 1006,4 hPa 0,0 l/m 0 min 0 min 19 W/m 6,4 km/h (2 Bft) 97,83 %
11.12.2019 15:36 5,1 C 4,4 C 3,9 C 100 % 1006,4 hPa 0,0 l/m 0 min 0 min 19 W/m 6,4 km/h (2 Bft) 97,87 %
11.12.2019 15:38 5,0 C 4,4 C 3,9 C 100 % 1006,4 hPa 0,0 l/m 0 min 0 min 18 W/m 16,1 km/h (3 Bft) 97,87 %
11.12.2019 15:40 5,0 C 4,4 C 3,9 C 100 % 1006,3 hPa 0,0 l/m 0 min 0 min 18 W/m 6,4 km/h (2 Bft) 97,87 %
11.12.2019 15:42 5,0 C 4,4 C 3,9 C 100 % 1006,3 hPa 0,0 l/m 0 min 0 min 20 W/m 12,9 km/h (3 Bft) 97,87 %
11.12.2019 15:44 4,9 C 4,4 C 3,9 C 100 % 1006,3 hPa 0,0 l/m 0 min 0 min 24 W/m 12,9 km/h (3 Bft) 97,87 %
11.12.2019 15:46 4,9 C 4,4 C 3,9 C 100 % 1006,2 hPa 0,0 l/m 0 min 0 min 25 W/m 6,4 km/h (2 Bft) 97,83 %
11.12.2019 15:48 4,9 C 4,4 C 3,9 C 100 % 1006,2 hPa 0,0 l/m 0 min 0 min 24 W/m 6,4 km/h (2 Bft) 97,87 %
11.12.2019 15:50 4,9 C 4,4 C 3,9 C 100 % 1006,1 hPa 0,0 l/m 0 min 0 min 23 W/m 6,4 km/h (2 Bft) 100,00 %
11.12.2019 15:52 4,9 C 4,4 C 3,9 C 100 % 1006,1 hPa 0,0 l/m 0 min 0 min 21 W/m 12,9 km/h (3 Bft) 97,87 %
11.12.2019 15:54 4,9 C 4,4 C 3,9 C 100 % 1006,1 hPa 0,0 l/m 0 min 0 min 19 W/m 6,4 km/h (2 Bft) 100,00 %
11.12.2019 15:56 4,9 C 4,4 C 3,9 C 100 % 1006,1 hPa 0,0 l/m 0 min 0 min 16 W/m 6,4 km/h (2 Bft) 100,00 %
11.12.2019 15:58 4,9 C 4,4 C 3,9 C 100 % 1006,0 hPa 0,0 l/m 0 min 0 min 16 W/m 3,2 km/h (1 Bft) 100,00 %
11.12.2019 16:00 4,9 C 3,9 C 3,9 C 100 % 1006,1 hPa 0,0 l/m 0 min 0 min 15 W/m 16,1 km/h (3 Bft) 95,74 %
11.12.2019 16:02 4,9 C 3,9 C 3,9 C 100 % 1006,1 hPa 0,0 l/m 0 min 0 min 14 W/m 12,9 km/h (3 Bft) 100,00 %
11.12.2019 16:04 4,9 C 3,9 C 3,9 C 100 % 1006,0 hPa 0,0 l/m 0 min 0 min 14 W/m 6,4 km/h (2 Bft) 100,00 %
11.12.2019 16:06 4,9 C 3,9 C 3,9 C 100 % 1006,0 hPa 0,0 l/m 0 min 0 min 13 W/m 6,4 km/h (2 Bft) 100,00 %
11.12.2019 16:08 4,8 C 3,9 C 3,3 C 100 % 1006,1 hPa 0,0 l/m 0 min 0 min 11 W/m 6,4 km/h (2 Bft) 100,00 %
11.12.2019 16:10 4,8 C 3,9 C 3,3 C 100 % 1006,1 hPa 0,0 l/m 0 min 0 min 8 W/m 6,4 km/h (2 Bft) 100,00 %
11.12.2019 16:12 4,8 C 3,9 C 3,3 C 100 % 1006,1 hPa 0,0 l/m 0 min 0 min 5 W/m 16,1 km/h (3 Bft) 100,00 %
11.12.2019 16:14 4,8 C 3,9 C 3,3 C 100 % 1006,1 hPa 0,0 l/m 0 min 0 min 4 W/m 6,4 km/h (2 Bft) 100,00 %
11.12.2019 16:16 4,8 C 3,9 C 3,3 C 100 % 1006,1 hPa 0,0 l/m 0 min 0 min 0 W/m 12,9 km/h (3 Bft) 54,55 %
11.12.2019 16:18 4,8 C 3,9 C 3,3 C 100 % 1006,1 hPa 0,0 l/m 0 min 0 min 0 W/m 3,2 km/h (1 Bft) 100,00 %
11.12.2019 16:20 4,8 C 3,9 C 3,3 C 100 % 1006,1 hPa 0,0 l/m 0 min 0 min 0 W/m 12,9 km/h (3 Bft) 100,00 %
11.12.2019 16:22 4,8 C 3,9 C 3,3 C 100 % 1006,1 hPa 0,0 l/m 0 min 0 min 0 W/m 12,9 km/h (3 Bft) 100,00 %
11.12.2019 16:24 4,8 C 3,9 C 3,3 C 100 % 1006,0 hPa 0,0 l/m 0 min 0 min 0 W/m 0,0 km/h (0 Bft) 97,87 %
11.12.2019 16:26 4,7 C 3,9 C 3,3 C 100 % 1006,1 hPa 0,0 l/m 0 min 0 min 0 W/m 0,0 km/h (0 Bft) 100,00 %
11.12.2019 16:28 4,7 C 3,9 C 3,3 C 100 % 1006,1 hPa 0,0 l/m 0 min 0 min 0 W/m 0,0 km/h (0 Bft) 100,00 %
11.12.2019 16:30 4,7 C 3,9 C 3,3 C 100 % 1006,1 hPa 0,0 l/m 0 min 0 min 0 W/m 0,0 km/h (0 Bft) 100,00 %
11.12.2019 16:32 4,7 C 3,9 C 3,3 C 100 % 1006,1 hPa 0,0 l/m 0 min 0 min 0 W/m 0,0 km/h (0 Bft) 100,00 %
11.12.2019 16:34 4,7 C 3,9 C 3,3 C 100 % 1006,1 hPa 0,0 l/m 0 min 0 min 0 W/m 0,0 km/h (0 Bft) 97,87 %
11.12.2019 16:36 4,7 C 3,9 C 3,3 C 100 % 1006,1 hPa 0,0 l/m 0 min 0 min 0 W/m 0,0 km/h (0 Bft) 97,87 %
11.12.2019 16:38 4,7 C 3,9 C 3,3 C 100 % 1006,1 hPa 0,0 l/m 0 min 0 min 0 W/m 0,0 km/h (0 Bft) 100,00 %
11.12.2019 16:40 4,7 C 3,9 C 3,3 C 100 % 1006,1 hPa 0,0 l/m 0 min 0 min 0 W/m 0,0 km/h (0 Bft) 97,87 %
11.12.2019 16:42 4,7 C 3,9 C 3,3 C 100 % 1006,1 hPa 0,0 l/m 0 min 0 min 0 W/m 16,1 km/h (3 Bft) 95,74 %
11.12.2019 16:44 4,7 C 3,9 C 3,3 C 100 % 1006,1 hPa 0,0 l/m 0 min 0 min 0 W/m 3,2 km/h (1 Bft) 97,83 %
11.12.2019 16:46 4,7 C 3,9 C 3,3 C 100 % 1006,1 hPa 0,0 l/m 0 min 0 min 0 W/m 6,4 km/h (2 Bft) 95,74 %
11.12.2019 16:48 4,7 C 3,9 C 3,3 C 100 % 1006,1 hPa 0,0 l/m 0 min 0 min 0 W/m 3,2 km/h (1 Bft) 95,74 %
11.12.2019 16:50 4,7 C 3,9 C 3,3 C 100 % 1006,1 hPa 0,0 l/m 0 min 0 min 0 W/m 0,0 km/h (0 Bft) 97,87 %
11.12.2019 16:52 4,7 C 3,9 C 3,3 C 100 % 1006,1 hPa 0,0 l/m 0 min 0 min 0 W/m 0,0 km/h (0 Bft) 95,74 %
11.12.2019 16:54 4,7 C 3,9 C 3,3 C 100 % 1006,1 hPa 0,0 l/m 0 min 0 min 0 W/m 12,9 km/h (3 Bft) 97,83 %
11.12.2019 16:56 4,7 C 3,9 C 3,3 C 100 % 1006,1 hPa 0,0 l/m 0 min 0 min 0 W/m 12,9 km/h (3 Bft) 97,87 %
11.12.2019 16:58 4,6 C 3,9 C 3,3 C 100 % 1006,1 hPa 0,0 l/m 0 min 0 min 0 W/m 6,4 km/h (2 Bft) 97,87 %
11.12.2019 17:00 4,6 C 3,9 C 3,3 C 100 % 1006,1 hPa 0,0 l/m 0 min 0 min 0 W/m 6,4 km/h (2 Bft) 97,87 %
11.12.2019 17:02 4,6 C 3,9 C 3,3 C 100 % 1006,1 hPa 0,0 l/m 0 min 0 min 0 W/m 3,2 km/h (1 Bft) 95,74 %
11.12.2019 17:04 4,6 C 3,9 C 3,3 C 100 % 1006,1 hPa 0,0 l/m 0 min 0 min 0 W/m 3,2 km/h (1 Bft) 95,74 %
11.12.2019 17:06 4,6 C 3,9 C 3,3 C 100 % 1006,1 hPa 0,0 l/m 0 min 0 min 0 W/m 6,4 km/h (2 Bft) 93,62 %
11.12.2019 17:08 4,6 C 3,9 C 3,3 C 100 % 1006,1 hPa 0,0 l/m 0 min 0 min 0 W/m 6,4 km/h (2 Bft) 95,65 %
11.12.2019 17:10 4,6 C 3,9 C 3,3 C 100 % 1006,2 hPa 0,0 l/m 0 min 0 min 0 W/m 3,2 km/h (1 Bft) 95,74 %
11.12.2019 17:12 4,6 C 3,9 C 3,3 C 100 % 1006,1 hPa 0,0 l/m 0 min 0 min 0 W/m 3,2 km/h (1 Bft) 97,87 %
11.12.2019 17:14 4,6 C 3,9 C 3,3 C 100 % 1006,0 hPa 0,0 l/m 0 min 0 min 0 W/m 12,9 km/h (3 Bft) 93,62 %
11.12.2019 17:16 4,6 C 3,9 C 3,3 C 100 % 1006,0 hPa 0,0 l/m 0 min 0 min 0 W/m 6,4 km/h (2 Bft) 95,74 %
11.12.2019 17:18 4,6 C 3,9 C 3,3 C 100 % 1006,0 hPa 0,0 l/m 0 min 0 min 0 W/m 6,4 km/h (2 Bft) 95,65 %
11.12.2019 17:20 4,6 C 3,9 C 3,3 C 100 % 1006,0 hPa 0,0 l/m 0 min 0 min 0 W/m 0,0 km/h (0 Bft) 95,74 %
11.12.2019 17:22 4,6 C 3,9 C 3,3 C 100 % 1006,0 hPa 0,0 l/m 0 min 0 min 0 W/m 6,4 km/h (2 Bft) 97,87 %
11.12.2019 17:24 4,6 C 3,9 C 3,3 C 100 % 1006,1 hPa 0,0 l/m 0 min 0 min 0 W/m 0,0 km/h (0 Bft) 68,09 %
11.12.2019 17:26 4,6 C 3,9 C 3,3 C 100 % 1006,1 hPa 0,0 l/m 0 min 0 min 0 W/m 0,0 km/h (0 Bft) 80,49 %
11.12.2019 17:28 4,6 C 3,9 C 3,3 C 100 % 1006,0 hPa 0,0 l/m 0 min 0 min 0 W/m 0,0 km/h (0 Bft) 97,87 %
11.12.2019 17:30 4,6 C 3,9 C 3,3 C 100 % 1006,1 hPa 0,0 l/m 0 min 0 min 0 W/m 0,0 km/h (0 Bft) 97,83 %
11.12.2019 17:32 4,6 C 3,9 C 3,3 C 100 % 1006,1 hPa 0,0 l/m 0 min 0 min 0 W/m 0,0 km/h (0 Bft) 97,87 %
11.12.2019 17:34 4,6 C 3,9 C 3,3 C 100 % 1006,1 hPa 0,0 l/m 0 min 0 min 0 W/m 6,4 km/h (2 Bft) 97,87 %
11.12.2019 17:36 4,6 C 3,9 C 3,3 C 100 % 1006,1 hPa 0,0 l/m 0 min 0 min 0 W/m 3,2 km/h (1 Bft) 93,62 %
11.12.2019 17:38 4,6 C 3,9 C 3,3 C 100 % 1006,0 hPa 0,0 l/m 0 min 0 min 0 W/m 6,4 km/h (2 Bft) 97,87 %
11.12.2019 17:40 4,6 C 3,9 C 3,3 C 100 % 1006,0 hPa 0,0 l/m 0 min 0 min 0 W/m 0,0 km/h (0 Bft) 97,87 %
11.12.2019 17:42 4,6 C 3,9 C 3,3 C 100 % 1006,0 hPa 0,0 l/m 0 min 0 min 0 W/m 0,0 km/h (0 Bft) 97,83 %
11.12.2019 17:44 4,6 C 3,9 C 3,3 C 100 % 1006,1 hPa 0,0 l/m 0 min 0 min 0 W/m 6,4 km/h (2 Bft) 93,62 %
11.12.2019 17:46 4,6 C 3,9 C 3,3 C 100 % 1006,0 hPa 0,0 l/m 0 min 0 min 0 W/m 6,4 km/h (2 Bft) 97,87 %
11.12.2019 17:48 4,6 C 3,9 C 3,3 C 100 % 1006,0 hPa 0,0 l/m 0 min 0 min 0 W/m 3,2 km/h (1 Bft) 97,87 %
11.12.2019 17:50 4,6 C 3,9 C 3,3 C 100 % 1006,0 hPa 0,0 l/m 0 min 0 min 0 W/m 3,2 km/h (1 Bft) 95,74 %
11.12.2019 17:52 4,6 C 3,9 C 3,3 C 100 % 1006,0 hPa 0,0 l/m 0 min 0 min 0 W/m 6,4 km/h (2 Bft) 95,65 %
11.12.2019 17:54 4,6 C 3,9 C 3,3 C 100 % 1006,1 hPa 0,0 l/m 0 min 0 min 0 W/m 0,0 km/h (0 Bft) 97,87 %
11.12.2019 17:56 4,6 C 3,9 C 3,3 C 100 % 1006,1 hPa 0,0 l/m 0 min 0 min 0 W/m 3,2 km/h (1 Bft) 97,87 %
11.12.2019 17:58 4,6 C 3,9 C 3,3 C 100 % 1006,0 hPa 0,0 l/m 0 min 0 min 0 W/m 12,9 km/h (3 Bft) 97,87 %
11.12.2019 18:00 4,6 C 3,9 C 3,3 C 100 % 1006,0 hPa 0,0 l/m 0 min 0 min 0 W/m 0,0 km/h (0 Bft) 97,87 %
11.12.2019 18:02 4,6 C 3,9 C 3,3 C 100 % 1006,0 hPa 0,0 l/m 0 min 0 min 0 W/m 0,0 km/h (0 Bft) 95,74 %
11.12.2019 18:04 4,6 C 3,9 C 3,3 C 100 % 1006,0 hPa 0,0 l/m 0 min 0 min 0 W/m 0,0 km/h (0 Bft) 97,83 %
11.12.2019 18:06 4,6 C 3,9 C 3,3 C 100 % 1006,0 hPa 0,0 l/m 0 min 0 min 0 W/m 0,0 km/h (0 Bft) 97,87 %
11.12.2019 18:08 4,6 C 3,9 C 3,3 C 100 % 1006,0 hPa 0,0 l/m 0 min 0 min 0 W/m 0,0 km/h (0 Bft) 97,87 %
11.12.2019 18:10 4,6 C 3,9 C 3,3 C 100 % 1005,9 hPa 0,0 l/m 0 min 0 min 0 W/m 6,4 km/h (2 Bft) 97,87 %
11.12.2019 18:12 4,6 C 3,9 C 3,3 C 100 % 1005,9 hPa 0,0 l/m 0 min 0 min 0 W/m 6,4 km/h (2 Bft) 95,74 %
11.12.2019 18:14 4,6 C 3,9 C 3,3 C 100 % 1005,9 hPa 0,0 l/m 0 min 0 min 0 W/m 6,4 km/h (2 Bft) 100,00 %
11.12.2019 18:16 4,6 C 3,9 C 3,3 C 100 % 1005,9 hPa 0,0 l/m 0 min 0 min 0 W/m 3,2 km/h (1 Bft) 100,00 %
11.12.2019 18:18 4,6 C 3,9 C 3,3 C 100 % 1006,0 hPa 0,0 l/m 0 min 0 min 0 W/m 3,2 km/h (1 Bft) 100,00 %
11.12.2019 18:20 4,6 C 3,9 C 3,3 C 100 % 1005,9 hPa 0,0 l/m 0 min 0 min 0 W/m 6,4 km/h (2 Bft) 97,87 %
11.12.2019 18:22 4,6 C 3,9 C 3,3 C 100 % 1005,9 hPa 0,0 l/m 0 min 0 min 0 W/m 12,9 km/h (3 Bft) 95,74 %
11.12.2019 18:24 4,6 C 3,9 C 3,3 C 100 % 1005,8 hPa 0,0 l/m 0 min 0 min 0 W/m 3,2 km/h (1 Bft) 100,00 %
11.12.2019 18:26 4,6 C 3,9 C 3,3 C 100 % 1005,8 hPa 0,0 l/m 0 min 0 min 0 W/m 6,4 km/h (2 Bft) 97,87 %
11.12.2019 18:28 4,6 C 3,9 C 3,3 C 100 % 1005,9 hPa 0,0 l/m 0 min 0 min 0 W/m 0,0 km/h (0 Bft) 97,83 %
11.12.2019 18:30 4,6 C 3,9 C 3,3 C 100 % 1006,0 hPa 0,0 l/m 0 min 0 min 0 W/m 0,0 km/h (0 Bft) 97,87 %
11.12.2019 18:32 4,6 C 3,9 C 3,3 C 100 % 1005,9 hPa 0,0 l/m 0 min 0 min 0 W/m 3,2 km/h (1 Bft) 97,87 %
11.12.2019 18:34 4,6 C 3,9 C 3,3 C 100 % 1005,9 hPa 0,0 l/m 0 min 0 min 0 W/m 0,0 km/h (0 Bft) 97,87 %
11.12.2019 18:36 4,5 C 3,9 C 3,3 C 100 % 1006,0 hPa 0,0 l/m 0 min 0 min 0 W/m 3,2 km/h (1 Bft) 97,87 %
11.12.2019 18:38 4,5 C 3,9 C 3,3 C 100 % 1006,0 hPa 0,0 l/m 0 min 0 min 0 W/m 3,2 km/h (1 Bft) 97,87 %
11.12.2019 18:40 4,5 C 3,9 C 3,3 C 100 % 1006,0 hPa 0,0 l/m 0 min 0 min 0 W/m 0,0 km/h (0 Bft) 97,83 %
11.12.2019 18:42 4,5 C 3,3 C 2,8 C 100 % 1005,9 hPa 0,0 l/m 0 min 0 min 0 W/m 0,0 km/h (0 Bft) 97,87 %
11.12.2019 18:44 4,5 C 3,3 C 2,8 C 100 % 1005,9 hPa 0,0 l/m 0 min 0 min 0 W/m 0,0 km/h (0 Bft) 97,87 %
11.12.2019 18:46 4,4 C 3,3 C 2,8 C 100 % 1006,0 hPa 0,0 l/m 0 min 0 min 0 W/m 0,0 km/h (0 Bft) 97,87 %
11.12.2019 18:48 4,4 C 3,3 C 2,8 C 100 % 1006,0 hPa 0,0 l/m 0 min 0 min 0 W/m 0,0 km/h (0 Bft) 95,74 %
11.12.2019 18:50 4,4 C 3,3 C 2,8 C 100 % 1006,0 hPa 0,0 l/m 0 min 0 min 0 W/m 3,2 km/h (1 Bft) 97,83 %
11.12.2019 18:52 4,4 C 3,3 C 2,8 C 100 % 1006,0 hPa 0,0 l/m 0 min 0 min 0 W/m 0,0 km/h (0 Bft) 95,74 %
11.12.2019 18:54 4,4 C 3,3 C 2,8 C 100 % 1006,0 hPa 0,0 l/m 0 min 0 min 0 W/m 6,4 km/h (2 Bft) 97,87 %
11.12.2019 18:56 4,4 C 3,3 C 2,8 C 100 % 1005,9 hPa 0,0 l/m 0 min 0 min 0 W/m 3,2 km/h (1 Bft) 97,87 %
11.12.2019 18:58 4,4 C 3,3 C 2,8 C 100 % 1005,9 hPa 0,0 l/m 0 min 0 min 0 W/m 3,2 km/h (1 Bft) 95,92 %
11.12.2019 19:00 4,3 C 3,3 C 2,8 C 100 % 1005,9 hPa 0,0 l/m 0 min 0 min 0 W/m 3,2 km/h (1 Bft) 97,87 %
11.12.2019 19:02 4,3 C 3,3 C 2,8 C 99 % 1005,9 hPa 0,0 l/m 0 min 0 min 0 W/m 0,0 km/h (0 Bft) 97,83 %
11.12.2019 19:04 4,3 C 3,3 C 2,8 C 99 % 1005,9 hPa 0,0 l/m 0 min 0 min 0 W/m 6,4 km/h (2 Bft) 93,75 %
11.12.2019 19:06 4,3 C 3,3 C 2,8 C 99 % 1005,9 hPa 0,0 l/m 0 min 0 min 0 W/m 3,2 km/h (1 Bft) 97,96 %
11.12.2019 19:08 4,3 C 3,3 C 2,8 C 99 % 1005,9 hPa 0,0 l/m 0 min 0 min 0 W/m 0,0 km/h (0 Bft) 97,14 %
11.12.2019 19:10 4,3 C 3,3 C 2,8 C 99 % 1005,9 hPa 0,0 l/m 0 min 0 min 0 W/m 3,2 km/h (1 Bft) 97,87 %
11.12.2019 19:12 4,3 C 3,3 C 2,8 C 99 % 1006,0 hPa 0,0 l/m 0 min 0 min 0 W/m 0,0 km/h (0 Bft) 97,87 %
11.12.2019 19:14 4,3 C 3,3 C 2,8 C 99 % 1005,9 hPa 0,0 l/m 0 min 0 min 0 W/m 3,2 km/h (1 Bft) 97,87 %
11.12.2019 19:16 4,3 C 3,3 C 2,8 C 99 % 1005,9 hPa 0,0 l/m 0 min 0 min 0 W/m 0,0 km/h (0 Bft) 95,65 %
11.12.2019 19:18 4,3 C 3,3 C 2,8 C 99 % 1005,8 hPa 0,0 l/m 0 min 0 min 0 W/m 0,0 km/h (0 Bft) 97,87 %
11.12.2019 19:20 4,3 C 3,3 C 2,8 C 99 % 1005,8 hPa 0,0 l/m 0 min 0 min 0 W/m 0,0 km/h (0 Bft) 97,87 %
11.12.2019 19:22 4,3 C 3,3 C 2,8 C 99 % 1005,9 hPa 0,0 l/m 0 min 0 min 0 W/m 0,0 km/h (0 Bft) 95,74 %
11.12.2019 19:24 4,2 C 3,3 C 2,8 C 99 % 1005,9 hPa 0,0 l/m 0 min 0 min 0 W/m 3,2 km/h (1 Bft) 93,62 %
11.12.2019 19:26 4,2 C 3,3 C 2,8 C 99 % 1005,9 hPa 0,0 l/m 0 min 0 min 0 W/m 6,4 km/h (2 Bft) 97,87 %
11.12.2019 19:28 4,2 C 3,3 C 2,8 C 99 % 1005,9 hPa 0,0 l/m 0 min 0 min 0 W/m 3,2 km/h (1 Bft) 97,83 %
11.12.2019 19:30 4,2 C 3,3 C 2,8 C 99 % 1005,9 hPa 0,0 l/m 0 min 0 min 0 W/m 3,2 km/h (1 Bft) 95,74 %
11.12.2019 19:32 4,2 C 3,3 C 2,8 C 100 % 1005,8 hPa 0,0 l/m 0 min 0 min 0 W/m 3,2 km/h (1 Bft) 97,87 %
11.12.2019 19:34 4,2 C 3,3 C 2,8 C 100 % 1005,8 hPa 0,0 l/m 0 min 0 min 0 W/m 0,0 km/h (0 Bft) 97,87 %
11.12.2019 19:36 4,2 C 3,3 C 2,8 C 100 % 1005,8 hPa 0,0 l/m 0 min 0 min 0 W/m 3,2 km/h (1 Bft) 97,87 %
11.12.2019 19:38 4,2 C 3,3 C 2,8 C 100 % 1005,8 hPa 0,0 l/m 0 min 0 min 0 W/m 3,2 km/h (1 Bft) 97,87 %
11.12.2019 19:40 4,1 C 3,3 C 2,8 C 100 % 1005,8 hPa 0,0 l/m 0 min 0 min 0 W/m 0,0 km/h (0 Bft) 97,83 %
11.12.2019 19:42 4,1 C 3,3 C 2,8 C 100 % 1005,7 hPa 0,0 l/m 0 min 0 min 0 W/m 0,0 km/h (0 Bft) 95,74 %
11.12.2019 19:44 4,1 C 3,3 C 2,8 C 100 % 1005,7 hPa 0,0 l/m 0 min 0 min 0 W/m 0,0 km/h (0 Bft) 95,74 %
11.12.2019 19:46 4,1 C 3,3 C 2,8 C 100 % 1005,7 hPa 0,0 l/m 0 min 0 min 0 W/m 0,0 km/h (0 Bft) 97,87 %
11.12.2019 19:48 4,1 C 3,3 C 2,8 C 100 % 1005,7 hPa 0,0 l/m 0 min 0 min 0 W/m 0,0 km/h (0 Bft) 95,74 %
11.12.2019 19:50 4,1 C 3,3 C 2,8 C 100 % 1005,8 hPa 0,0 l/m 0 min 0 min 0 W/m 0,0 km/h (0 Bft) 97,83 %
11.12.2019 19:52 4,1 C 3,3 C 2,8 C 100 % 1005,7 hPa 0,0 l/m 0 min 0 min 0 W/m 6,4 km/h (2 Bft) 97,87 %
11.12.2019 19:54 4,1 C 3,3 C 2,8 C 100 % 1005,8 hPa 0,0 l/m 0 min 0 min 0 W/m 6,4 km/h (2 Bft) 95,74 %
11.12.2019 19:56 4,1 C 3,3 C 2,8 C 100 % 1005,8 hPa 0,0 l/m 0 min 0 min 0 W/m 12,9 km/h (3 Bft) 97,87 %
11.12.2019 19:58 4,1 C 3,3 C 2,8 C 100 % 1005,8 hPa 0,0 l/m 0 min 0 min 0 W/m 3,2 km/h (1 Bft) 95,74 %
11.12.2019 20:00 4,0 C 3,3 C 2,8 C 100 % 1005,8 hPa 0,0 l/m 0 min 0 min 0 W/m 0,0 km/h (0 Bft) 95,74 %
11.12.2019 20:02 4,0 C 3,3 C 2,8 C 100 % 1005,8 hPa 0,0 l/m 0 min 0 min 0 W/m 6,4 km/h (2 Bft) 97,87 %
11.12.2019 20:04 4,0 C 3,3 C 2,8 C 99 % 1005,7 hPa 0,0 l/m 0 min 0 min 0 W/m 6,4 km/h (2 Bft) 95,65 %
11.12.2019 20:06 4,0 C 3,3 C 2,8 C 99 % 1005,8 hPa 0,0 l/m 0 min 0 min 0 W/m 3,2 km/h (1 Bft) 100,00 %
11.12.2019 20:08 4,0 C 3,3 C 2,8 C 99 % 1005,6 hPa 0,0 l/m 0 min 0 min 0 W/m 3,2 km/h (1 Bft) 95,74 %
11.12.2019 20:10 4,0 C 3,3 C 2,8 C 99 % 1005,7 hPa 0,0 l/m 0 min 0 min 0 W/m 6,4 km/h (2 Bft) 93,62 %
11.12.2019 20:12 4,0 C 3,3 C 2,8 C 99 % 1005,6 hPa 0,0 l/m 0 min 0 min 0 W/m 6,4 km/h (2 Bft) 97,87 %
11.12.2019 20:14 4,0 C 3,3 C 2,8 C 99 % 1005,6 hPa 0,0 l/m 0 min 0 min 0 W/m 6,4 km/h (2 Bft) 95,65 %
11.12.2019 20:16 3,9 C 3,3 C 2,8 C 99 % 1005,6 hPa 0,0 l/m 0 min 0 min 0 W/m 3,2 km/h (1 Bft) 95,74 %
11.12.2019 20:18 3,9 C 3,3 C 2,8 C 99 % 1005,5 hPa 0,0 l/m 0 min 0 min 0 W/m 3,2 km/h (1 Bft) 95,74 %
11.12.2019 20:20 4,0 C 3,3 C 2,8 C 99 % 1005,5 hPa 0,0 l/m 0 min 0 min 0 W/m 6,4 km/h (2 Bft) 97,87 %
11.12.2019 20:22 4,0 C 3,3 C 2,8 C 99 % 1005,6 hPa 0,0 l/m 0 min 0 min 0 W/m 12,9 km/h (3 Bft) 95,74 %
11.12.2019 20:24 3,9 C 3,3 C 2,8 C 99 % 1005,5 hPa 0,0 l/m 0 min 0 min 0 W/m 12,9 km/h (3 Bft) 97,87 %
11.12.2019 20:26 3,9 C 3,3 C 2,8 C 99 % 1005,5 hPa 0,0 l/m 0 min 0 min 0 W/m 3,2 km/h (1 Bft) 95,65 %
11.12.2019 20:28 3,9 C 3,3 C 2,8 C 99 % 1005,5 hPa 0,0 l/m 0 min 0 min 0 W/m 6,4 km/h (2 Bft) 97,87 %
11.12.2019 20:30 4,0 C 3,3 C 2,8 C 99 % 1005,5 hPa 0,0 l/m 0 min 0 min 0 W/m 6,4 km/h (2 Bft) 97,87 %
11.12.2019 20:32 3,9 C 3,3 C 2,8 C 99 % 1005,5 hPa 0,0 l/m 0 min 0 min 0 W/m 6,4 km/h (2 Bft) 97,87 %
11.12.2019 20:34 3,9 C 3,3 C 2,8 C 99 % 1005,6 hPa 0,0 l/m 0 min 0 min 0 W/m 3,2 km/h (1 Bft) 93,62 %
11.12.2019 20:36 3,9 C 3,3 C 2,8 C 99 % 1005,6 hPa 0,0 l/m 0 min 0 min 0 W/m 6,4 km/h (2 Bft) 97,87 %
11.12.2019 20:38 3,9 C 3,3 C 2,8 C 99 % 1005,6 hPa 0,0 l/m 0 min 0 min 0 W/m 3,2 km/h (1 Bft) 97,83 %
11.12.2019 20:40 4,0 C 3,3 C 2,8 C 99 % 1005,5 hPa 0,0 l/m 0 min 0 min 0 W/m 6,4 km/h (2 Bft) 97,87 %
11.12.2019 20:42 4,0 C 3,3 C 2,8 C 99 % 1005,5 hPa 0,0 l/m 0 min 0 min 0 W/m 6,4 km/h (2 Bft) 97,87 %
11.12.2019 20:44 3,9 C 3,3 C 2,8 C 99 % 1005,5 hPa 0,0 l/m 0 min 0 min 0 W/m 12,9 km/h (3 Bft) 97,87 %
11.12.2019 20:46 4,0 C 3,3 C 2,8 C 99 % 1005,5 hPa 0,0 l/m 0 min 0 min 0 W/m 6,4 km/h (2 Bft) 97,87 %
11.12.2019 20:48 4,0 C 3,3 C 2,8 C 99 % 1005,5 hPa 0,0 l/m 0 min 0 min 0 W/m 6,4 km/h (2 Bft) 97,87 %
11.12.2019 20:50 4,0 C 3,3 C 2,8 C 99 % 1005,5 hPa 0,0 l/m 0 min 0 min 0 W/m 3,2 km/h (1 Bft) 97,83 %
11.12.2019 20:52 4,0 C 3,3 C 2,8 C 99 % 1005,5 hPa 0,0 l/m 0 min 0 min 0 W/m 3,2 km/h (1 Bft) 97,87 %
11.12.2019 20:54 4,0 C 3,3 C 2,8 C 99 % 1005,5 hPa 0,0 l/m 0 min 0 min 0 W/m 0,0 km/h (0 Bft) 95,74 %
11.12.2019 20:56 4,0 C 3,3 C 2,8 C 99 % 1005,5 hPa 0,0 l/m 0 min 0 min 0 W/m 0,0 km/h (0 Bft) 100,00 %
11.12.2019 20:58 4,0 C 3,3 C 2,8 C 99 % 1005,5 hPa 0,0 l/m 0 min 0 min 0 W/m 0,0 km/h (0 Bft) 100,00 %
11.12.2019 21:00 4,0 C 3,3 C 2,8 C 99 % 1005,5 hPa 0,0 l/m 0 min 0 min 0 W/m 0,0 km/h (0 Bft) 100,00 %
11.12.2019 21:02 4,0 C 3,3 C 2,8 C 99 % 1005,5 hPa 0,0 l/m 0 min 0 min 0 W/m 0,0 km/h (0 Bft) 100,00 %
11.12.2019 21:04 4,0 C 3,3 C 2,8 C 99 % 1005,5 hPa 0,0 l/m 0 min 0 min 0 W/m 0,0 km/h (0 Bft) 100,00 %
11.12.2019 21:06 4,0 C 3,3 C 2,8 C 100 % 1005,6 hPa 0,0 l/m 0 min 0 min 0 W/m 0,0 km/h (0 Bft) 100,00 %
11.12.2019 21:08 4,0 C 3,3 C 2,8 C 100 % 1005,6 hPa 0,0 l/m 0 min 0 min 0 W/m 0,0 km/h (0 Bft) 97,87 %
11.12.2019 21:10 4,0 C 3,3 C 2,8 C 100 % 1005,5 hPa 0,0 l/m 0 min 0 min 0 W/m 0,0 km/h (0 Bft) 97,87 %
11.12.2019 21:12 4,1 C 3,3 C 2,8 C 100 % 1005,5 hPa 0,0 l/m 0 min 0 min 0 W/m 0,0 km/h (0 Bft) 100,00 %
11.12.2019 21:14 4,1 C 3,3 C 2,8 C 100 % 1005,5 hPa 0,0 l/m 0 min 0 min 0 W/m 0,0 km/h (0 Bft) 100,00 %
11.12.2019 21:16 4,1 C 3,3 C 2,8 C 100 % 1005,5 hPa 0,0 l/m 0 min 0 min 0 W/m 0,0 km/h (0 Bft) 100,00 %
11.12.2019 21:18 4,1 C 3,3 C 2,8 C 100 % 1005,5 hPa 0,0 l/m 0 min 0 min 0 W/m 12,9 km/h (3 Bft) 100,00 %
11.12.2019 21:20 4,1 C 3,3 C 2,8 C 100 % 1005,5 hPa 0,0 l/m 0 min 0 min 0 W/m 6,4 km/h (2 Bft) 100,00 %
11.12.2019 21:22 4,1 C 3,3 C 2,8 C 100 % 1005,5 hPa 0,0 l/m 0 min 0 min 0 W/m 12,9 km/h (3 Bft) 100,00 %
11.12.2019 21:24 4,1 C 3,3 C 2,8 C 100 % 1005,5 hPa 0,0 l/m 0 min 0 min 0 W/m 6,4 km/h (2 Bft) 100,00 %
11.12.2019 21:26 4,1 C 3,3 C 2,8 C 100 % 1005,5 hPa 0,0 l/m 0 min 0 min 0 W/m 6,4 km/h (2 Bft) 97,87 %
11.12.2019 21:28 4,1 C 3,3 C 2,8 C 100 % 1005,4 hPa 0,0 l/m 0 min 0 min 0 W/m 12,9 km/h (3 Bft) 100,00 %
11.12.2019 21:30 4,1 C 3,3 C 2,8 C 100 % 1005,4 hPa 0,0 l/m 0 min 0 min 0 W/m 6,4 km/h (2 Bft) 100,00 %
11.12.2019 21:32 4,1 C 3,3 C 2,8 C 100 % 1005,4 hPa 0,0 l/m 0 min 0 min 0 W/m 16,1 km/h (3 Bft) 100,00 %
11.12.2019 21:34 4,1 C 3,3 C 2,8 C 100 % 1005,3 hPa 0,0 l/m 0 min 0 min 0 W/m 12,9 km/h (3 Bft) 97,87 %
11.12.2019 21:36 4,0 C 3,3 C 2,8 C 100 % 1005,2 hPa 0,0 l/m 0 min 0 min 0 W/m 12,9 km/h (3 Bft) 97,83 %
11.12.2019 21:38 4,0 C 3,3 C 2,8 C 100 % 1005,2 hPa 0,0 l/m 0 min 0 min 0 W/m 6,4 km/h (2 Bft) 100,00 %
11.12.2019 21:40 4,0 C 3,3 C 2,8 C 99 % 1005,2 hPa 0,0 l/m 0 min 0 min 0 W/m 12,9 km/h (3 Bft) 97,87 %
11.12.2019 21:42 4,0 C 3,3 C 2,8 C 99 % 1005,2 hPa 0,0 l/m 0 min 0 min 0 W/m 6,4 km/h (2 Bft) 97,87 %
11.12.2019 21:44 4,0 C 3,3 C 2,8 C 99 % 1005,2 hPa 0,0 l/m 0 min 0 min 0 W/m 3,2 km/h (1 Bft) 97,87 %
11.12.2019 21:46 4,0 C 3,3 C 2,8 C 99 % 1005,2 hPa 0,0 l/m 0 min 0 min 0 W/m 12,9 km/h (3 Bft) 97,87 %
11.12.2019 21:48 4,0 C 3,3 C 2,8 C 99 % 1005,2 hPa 0,0 l/m 0 min 0 min 0 W/m 3,2 km/h (1 Bft) 95,65 %
11.12.2019 21:50 3,9 C 3,3 C 2,8 C 99 % 1005,3 hPa 0,0 l/m 0 min 0 min 0 W/m 3,2 km/h (1 Bft) 95,74 %
11.12.2019 21:52 3,9 C 3,3 C 2,8 C 99 % 1005,3 hPa 0,0 l/m 0 min 0 min 0 W/m 9,7 km/h (2 Bft) 97,87 %
11.12.2019 21:54 3,9 C 3,3 C 2,8 C 99 % 1005,2 hPa 0,0 l/m 0 min 0 min 0 W/m 3,2 km/h (1 Bft) 93,62 %
11.12.2019 21:56 3,9 C 3,3 C 2,8 C 99 % 1005,2 hPa 0,0 l/m 0 min 0 min 0 W/m 3,2 km/h (1 Bft) 93,62 %
11.12.2019 21:58 3,9 C 3,3 C 2,8 C 99 % 1005,2 hPa 0,0 l/m 0 min 0 min 0 W/m 6,4 km/h (2 Bft) 95,65 %
11.12.2019 22:00 3,9 C 3,3 C 2,8 C 99 % 1005,2 hPa 0,0 l/m 0 min 0 min 0 W/m 3,2 km/h (1 Bft) 93,62 %
11.12.2019 22:02 3,9 C 3,3 C 2,8 C 99 % 1005,2 hPa 0,0 l/m 0 min 0 min 0 W/m 3,2 km/h (1 Bft) 95,74 %
11.12.2019 22:04 3,9 C 3,3 C 2,8 C 99 % 1005,1 hPa 0,0 l/m 0 min 0 min 0 W/m 6,4 km/h (2 Bft) 95,74 %
11.12.2019 22:06 3,9 C 3,3 C 2,8 C 99 % 1005,2 hPa 0,0 l/m 0 min 0 min 0 W/m 0,0 km/h (0 Bft) 95,74 %
11.12.2019 22:08 3,9 C 3,3 C 2,8 C 99 % 1005,1 hPa 0,0 l/m 0 min 0 min 0 W/m 12,9 km/h (3 Bft) 97,87 %
11.12.2019 22:10 3,9 C 3,3 C 2,8 C 99 % 1005,2 hPa 0,0 l/m 0 min 0 min 0 W/m 6,4 km/h (2 Bft) 95,65 %
11.12.2019 22:12 3,9 C 3,3 C 2,8 C 99 % 1005,2 hPa 0,0 l/m 0 min 0 min 0 W/m 12,9 km/h (3 Bft) 95,74 %
11.12.2019 22:14 3,9 C 3,3 C 2,8 C 99 % 1005,2 hPa 0,0 l/m 0 min 0 min 0 W/m 12,9 km/h (3 Bft) 95,74 %
11.12.2019 22:16 3,9 C 3,3 C 2,8 C 99 % 1005,2 hPa 0,0 l/m 0 min 0 min 0 W/m 6,4 km/h (2 Bft) 91,49 %
11.12.2019 22:18 3,9 C 3,3 C 2,8 C 99 % 1005,2 hPa 0,0 l/m 0 min 0 min 0 W/m 12,9 km/h (3 Bft) 93,62 %
11.12.2019 22:20 3,9 C 3,3 C 2,8 C 99 % 1005,2 hPa 0,0 l/m 0 min 0 min 0 W/m 6,4 km/h (2 Bft) 93,62 %
11.12.2019 22:22 3,9 C 3,3 C 2,8 C 99 % 1005,1 hPa 0,0 l/m 0 min 0 min 0 W/m 12,9 km/h (3 Bft) 95,65 %
11.12.2019 22:24 3,9 C 3,3 C 2,8 C 99 % 1005,1 hPa 0,0 l/m 0 min 0 min 0 W/m 3,2 km/h (1 Bft) 95,74 %
11.12.2019 22:26 3,9 C 3,3 C 2,8 C 99 % 1005,1 hPa 0,0 l/m 0 min 0 min 0 W/m 12,9 km/h (3 Bft) 95,74 %
11.12.2019 22:28 3,9 C 3,3 C 2,2 C 99 % 1005,1 hPa 0,0 l/m 0 min 0 min 0 W/m 6,4 km/h (2 Bft) 95,74 %
11.12.2019 22:30 3,9 C 3,3 C 2,2 C 99 % 1005,1 hPa 0,0 l/m 0 min 0 min 0 W/m 6,4 km/h (2 Bft) 95,74 %
11.12.2019 22:32 3,8 C 3,3 C 2,2 C 99 % 1005,0 hPa 0,0 l/m 0 min 0 min 0 W/m 6,4 km/h (2 Bft) 95,74 %
11.12.2019 22:34 3,8 C 3,3 C 2,2 C 99 % 1005,0 hPa 0,0 l/m 0 min 0 min 0 W/m 16,1 km/h (3 Bft) 95,65 %
11.12.2019 22:36 3,8 C 3,3 C 2,2 C 99 % 1005,0 hPa 0,0 l/m 0 min 0 min 0 W/m 6,4 km/h (2 Bft) 93,62 %
11.12.2019 22:38 3,8 C 3,3 C 2,2 C 99 % 1004,9 hPa 0,0 l/m 0 min 0 min 0 W/m 6,4 km/h (2 Bft) 93,62 %
11.12.2019 22:40 3,8 C 3,3 C 2,2 C 99 % 1004,9 hPa 0,0 l/m 0 min 0 min 0 W/m 12,9 km/h (3 Bft) 95,74 %
11.12.2019 22:42 3,8 C 3,3 C 2,2 C 100 % 1004,9 hPa 0,0 l/m 0 min 0 min 0 W/m 3,2 km/h (1 Bft) 95,74 %
11.12.2019 22:44 3,8 C 3,3 C 2,2 C 100 % 1004,9 hPa 0,0 l/m 0 min 0 min 0 W/m 6,4 km/h (2 Bft) 97,87 %
11.12.2019 22:46 3,8 C 3,3 C 2,2 C 100 % 1004,9 hPa 0,0 l/m 0 min 0 min 0 W/m 3,2 km/h (1 Bft) 100,00 %
11.12.2019 22:48 3,8 C 3,3 C 2,2 C 100 % 1004,9 hPa 0,0 l/m 0 min 0 min 0 W/m 6,4 km/h (2 Bft) 100,00 %
11.12.2019 22:50 3,8 C 3,3 C 2,2 C 100 % 1004,8 hPa 0,0 l/m 0 min 0 min 0 W/m 3,2 km/h (1 Bft) 95,74 %
11.12.2019 22:52 3,8 C 3,3 C 2,2 C 100 % 1004,8 hPa 0,0 l/m 0 min 0 min 0 W/m 3,2 km/h (1 Bft) 95,74 %
11.12.2019 22:54 3,8 C 3,3 C 2,2 C 100 % 1004,8 hPa 0,0 l/m 0 min 0 min 0 W/m 3,2 km/h (1 Bft) 97,87 %
11.12.2019 22:56 3,8 C 2,8 C 2,2 C 100 % 1004,8 hPa 0,0 l/m 0 min 0 min 0 W/m 3,2 km/h (1 Bft) 97,83 %
11.12.2019 22:58 3,7 C 2,8 C 2,2 C 100 % 1004,8 hPa 0,0 l/m 0 min 0 min 0 W/m 0,0 km/h (0 Bft) 95,74 %
11.12.2019 23:00 3,7 C 2,8 C 2,2 C 100 % 1004,8 hPa 0,0 l/m 0 min 0 min 0 W/m 3,2 km/h (1 Bft) 97,87 %
11.12.2019 23:02 3,7 C 2,8 C 2,2 C 100 % 1004,9 hPa 0,0 l/m 0 min 0 min 0 W/m 3,2 km/h (1 Bft) 97,87 %
11.12.2019 23:04 3,7 C 2,8 C 2,2 C 100 % 1004,9 hPa 0,0 l/m 0 min 0 min 0 W/m 12,9 km/h (3 Bft) 93,62 %
11.12.2019 23:06 3,7 C 2,8 C 2,2 C 100 % 1004,9 hPa 0,0 l/m 0 min 0 min 0 W/m 0,0 km/h (0 Bft) 97,87 %
11.12.2019 23:08 3,7 C 2,8 C 2,2 C 100 % 1004,8 hPa 0,0 l/m 0 min 0 min 0 W/m 0,0 km/h (0 Bft) 97,83 %
11.12.2019 23:10 3,7 C 2,8 C 2,2 C 100 % 1004,8 hPa 0,0 l/m 0 min 0 min 0 W/m 0,0 km/h (0 Bft) 95,74 %
11.12.2019 23:12 3,6 C 2,8 C 2,2 C 99 % 1004,8 hPa 0,0 l/m 0 min 0 min 0 W/m 6,4 km/h (2 Bft) 95,74 %
11.12.2019 23:14 3,6 C 2,8 C 2,2 C 99 % 1004,7 hPa 0,0 l/m 0 min 0 min 0 W/m 3,2 km/h (1 Bft) 97,87 %
11.12.2019 23:16 3,6 C 2,8 C 2,2 C 99 % 1004,7 hPa 0,0 l/m 0 min 0 min 0 W/m 3,2 km/h (1 Bft) 97,87 %
11.12.2019 23:18 3,6 C 2,8 C 2,2 C 99 % 1004,7 hPa 0,0 l/m 0 min 0 min 0 W/m 6,4 km/h (2 Bft) 97,87 %
11.12.2019 23:20 3,6 C 2,8 C 2,2 C 99 % 1004,6 hPa 0,0 l/m 0 min 0 min 0 W/m 0,0 km/h (0 Bft) 97,83 %
11.12.2019 23:22 3,5 C 2,8 C 2,2 C 99 % 1004,6 hPa 0,0 l/m 0 min 0 min 0 W/m 6,4 km/h (2 Bft) 93,62 %
11.12.2019 23:24 3,5 C 2,8 C 2,2 C 99 % 1004,7 hPa 0,0 l/m 0 min 0 min 0 W/m 3,2 km/h (1 Bft) 97,87 %
11.12.2019 23:26 3,5 C 2,8 C 2,2 C 99 % 1004,7 hPa 0,0 l/m 0 min 0 min 0 W/m 3,2 km/h (1 Bft) 97,87 %
11.12.2019 23:28 3,5 C 2,8 C 2,2 C 99 % 1004,7 hPa 0,0 l/m 0 min 0 min 0 W/m 3,2 km/h (1 Bft) 97,87 %
11.12.2019 23:30 3,5 C 2,8 C 2,2 C 99 % 1004,7 hPa 0,0 l/m 0 min 0 min 0 W/m 3,2 km/h (1 Bft) 95,74 %
11.12.2019 23:32 3,5 C 2,8 C 2,2 C 99 % 1004,7 hPa 0,0 l/m 0 min 0 min 0 W/m 3,2 km/h (1 Bft) 97,83 %
11.12.2019 23:34 3,4 C 2,8 C 2,2 C 99 % 1004,7 hPa 0,0 l/m 0 min 0 min 0 W/m 3,2 km/h (1 Bft) 97,87 %
11.12.2019 23:36 3,4 C 2,8 C 1,7 C 99 % 1004,6 hPa 0,0 l/m 0 min 0 min 0 W/m 6,4 km/h (2 Bft) 100,00 %
11.12.2019 23:38 3,4 C 2,8 C 1,7 C 99 % 1004,6 hPa 0,0 l/m 0 min 0 min 0 W/m 3,2 km/h (1 Bft) 100,00 %
11.12.2019 23:40 3,4 C 2,8 C 1,7 C 99 % 1004,6 hPa 0,0 l/m 0 min 0 min 0 W/m 3,2 km/h (1 Bft) 97,87 %
11.12.2019 23:42 3,4 C 2,8 C 1,7 C 99 % 1004,5 hPa 0,0 l/m 0 min 0 min 0 W/m 6,4 km/h (2 Bft) 100,00 %
11.12.2019 23:44 3,4 C 2,8 C 1,7 C 99 % 1004,5 hPa 0,0 l/m 0 min 0 min 0 W/m 3,2 km/h (1 Bft) 97,83 %
11.12.2019 23:46 3,4 C 2,8 C 1,7 C 99 % 1004,5 hPa 0,0 l/m 0 min 0 min 0 W/m 3,2 km/h (1 Bft) 95,74 %
11.12.2019 23:48 3,3 C 2,8 C 1,7 C 99 % 1004,5 hPa 0,0 l/m 0 min 0 min 0 W/m 3,2 km/h (1 Bft) 48,84 %
11.12.2019 23:50 3,3 C 2,8 C 1,7 C 99 % 1004,5 hPa 0,0 l/m 0 min 0 min 0 W/m 0,0 km/h (0 Bft) 100,00 %
11.12.2019 23:52 3,3 C 2,8 C 1,7 C 99 % 1004,5 hPa 0,0 l/m 0 min 0 min 0 W/m 0,0 km/h (0 Bft) 100,00 %
11.12.2019 23:54 3,3 C 2,8 C 1,7 C 99 % 1004,5 hPa 0,0 l/m 0 min 0 min 0 W/m 3,2 km/h (1 Bft) 100,00 %
11.12.2019 23:56 3,3 C 2,8 C 1,7 C 99 % 1004,5 hPa 0,0 l/m 0 min 0 min 0 W/m 3,2 km/h (1 Bft) 95,74 %
11.12.2019 23:58 3,3 C 2,8 C 1,7 C 99 % 1004,4 hPa 0,0 l/m 0 min 0 min 0 W/m 3,2 km/h (1 Bft) 100,00 %
_ Min-Zeit 23:48 03:08 23:36 00:00 23:58 - - - - 08:56 23:48
Minimum _ 3,3 C 2,8 C 1,7 C 78 % 1004,4 hPa - - - - 0,0 km/h (0 Bft) 48,84 %
_ Max-Zeit 00:42 00:00 00:22 11:34 00:00 03:20 00:00 12:08 13:34 00:42 00:00
Maximum _ 5,6 C 5,0 C 4,4 C 100 % 1014,6 hPa 0,2 l/m 0 min 4 min 67 W/m 38,6 km/h
SO (5 Bft)
100,00 %
Durchschnitt _ 4,5 C 3,8 C 3,2 C 96 % 1008,8 hPa #9,2 l/m #0 min. #9:02 h 24 W/m 11,1 km/h (2 Bft) 96,89 %
© 2019 W. Hausmann